ECMWFFLT1_sfc_dewp_102.txt.gz
Dewpoint
-14 -14 -13 -13 -11 -12 -13 -13 -12 -12 -12 -11 -11 -11 -11 -11 -11 -11 -11 -10 -10 -10 -9 -8 -8 -8 -8 -8 -7 -7 -7 -7 -7 -7 -6 -5 -6 -5 -5 -5 -6 -8 -8 -9 -8 -9 -9 -9 -8 -8 -9 -8 -7 -6 -5 0 -4 -5 -5 -6 -6 -5 8
-13 -12 -12 -13 -13 -13 -12 -12 -12 -12 -11 -11 -10 -11 -11 -11 -11 -11 -11 -11 -11 -10 -8 -8 -7 -8 -8 -8 -7 -7 -7 -7 -7 -6 -6 -6 -6 -6 -6 -6 -7 -8 -9 -9 -10 -10 -9 -9 -8 -9 -8 -7 -7 -7 -5 -4 -5 -6 -6 -6 -4 -2 -3
-12 -12 -12 -12 -12 -12 -12 -12 -11 -11 -10 -9 -9 -10 -10 -10 -11 -11 -11 -10 -10 -10 -9 -8 -8 -8 -8 -8 -8 -8 -7 -7 -7 -6 -6 -7 -6 -6 -7 -7 -7 -7 -8 -9 -10 -10 -10 -10 -10 -10 -9 -9 -7 -5 -6 -5 -4 -4 -3 -3 -3 -3 -4
-12 -12 -12 -12 -12 -12 -11 -11 -10 -10 -10 -9 -10 -10 -9 -9 -9 -10 -9 -8 -9 -9 -9 -8 -9 -9 -8 -8 -8 -8 -7 -7 -6 -6 -6 -6 -6 -6 -6 -8 -8 -8 -7 -8 -9 -10 -10 -10 -10 -10 -9 -8 -6 -6 -5 -4 -2 -2 -1 -1 -0 -1 -3
-10 -11 -11 -12 -11 -11 -11 -10 -10 -10 -10 -10 -10 -10 -9 -9 -8 -8 -8 -8 -9 -7 -8 -8 -8 -8 -8 -8 -9 -8 -8 -7 -8 -8 -7 -7 -7 -7 -7 -7 -7 -8 -7 -8 -9 -10 -10 -10 -10 -10 -10 -8 -8 -7 -5 -4 -3 -2 -1 -1 -1 -0 -2
-11 -10 -10 -10 -10 -10 -10 -10 -10 -10 -10 -10 -10 -10 -9 -8 -8 -9 -8 -8 -9 -9 -8 -9 -9 -9 -8 -9 -9 -9 -9 -9 -9 -9 -8 -8 -8 -7 -7 -7 -8 -8 -8 -8 -9 -10 -11 -10 -11 -11 -10 -10 -8 -7 -7 -5 -3 -2 -2 -1 -2 -1 -0
-11 -9 -10 -10 -9 -9 -9 -9 -9 -9 -9 -9 -9 -9 -8 -8 -9 -9 -9 -9 -9 -9 -9 -8 -8 -8 -8 -9 -9 -9 -9 -9 -10 -9 -9 -8 -9 -8 -8 -8 -8 -8 -8 -8 -9 -9 -10 -11 -10 -10 -11 -10 -9 -8 -8 -8 -6 -5 -3 -2 -2 -2 -1
-10 -10 -9 -9 -9 -8 -9 -9 -9 -9 -9 -9 -9 -9 -9 -9 -9 -9 -10 -9 -9 -8 -8 -8 -8 -8 -8 -8 -8 -8 -9 -9 -9 -9 -9 -8 -8 -8 -9 -9 -9 -8 -8 -8 -9 -10 -11 -11 -11 -11 -11 -10 -9 -8 -7 -6 -7 -7 -6 -4 -2 -2 -2
-9 -9 -9 -9 -9 -9 -9 -9 -9 -9 -9 -10 -9 -9 -9 -9 -9 -8 -8 -8 -8 -7 -7 -7 -7 -7 -7 -6 -4 -4 -4 -4 -4 -8 -9 -9 -8 -9 -8 -9 -9 -9 -9 -9 -9 -10 -9 -10 -11 -11 -11 -10 -10 -9 -9 -8 -7 -5 -5 -4 -4 -2 -1
-9 -9 -9 -9 -9 -9 -10 -10 -10 -7 -2 5 -1 -2 -2 -2 -2 -2 -2 -3 -3 -4 -4 -4 -5 -5 -3 -2 -1 -1 -1 -0 -0 -0 -2 -3 -4 -5 -6 -7 -8 -8 -9 -8 -9 -9 -9 -10 -10 -10 -11 -11 -10 -9 -8 -8 -7 -8 -8 -6 -6 -4 -2
-8 -10 -9 -10 -10 -10 -10 -10 -10 -3 9 10 7 -3 -2 0 -0 -1 -2 -3 -3 -4 -4 -4 -4 -5 -4 -2 -2 -3 -2 -2 -1 -1 -0 0 0 -0 -3 -4 -5 -6 -7 -7 -8 -8 -9 -9 -10 -9 -9 -9 -9 -9 -9 -9 -8 -8 -7 -7 -7 -8 -5
-10 -10 -10 -10 -11 -11 -10 -10 -6 8 10 10 6 8 -0 -1 -1 -2 -2 -3 -4 -5 -5 -5 -6 -6 -6 -6 -6 -5 -5 -3 -2 -1 -1 -0 0 1 2 5 -2 -3 -4 -5 -6 -7 -8 -8 -9 -8 -8 -7 -7 -7 -7 -7 -7 -6 -6 -7 -7 -6 -7
-8 -9 -10 -10 -10 -11 -10 -11 2 8 10 9 6 7 -0 -3 -2 -2 -3 -4 -5 -6 -7 -7 -7 -8 -8 -8 -4 -4 -5 -5 -5 -2 -2 -2 -2 -1 0 7 8 7 -1 -1 -2 -3 -5 -5 -6 -6 -6 -5 -6 -5 -6 -6 -6 -6 -5 -5 -6 -6 -6
-10 -9 -10 -11 -11 -11 -11 -11 -7 7 9 11 8 5 -0 -1 -1 -2 -4 -6 -7 -8 -9 -9 -9 -9 -9 -9 -8 -8 -8 -8 -8 -8 -8 -7 -7 -6 -4 -1 3 2 1 1 -0 -1 -1 -0 -1 -2 -2 -2 0 -3 -5 -5 -6 -5 -5 -5 -5 -5 -4
-11 -11 -11 -11 -12 -12 -12 -12 2 8 9 10 5 1 4 -2 -2 -4 -7 -8 -9 -9 -9 -9 -9 -9 -9 -9 -9 -8 -7 -7 -7 -7 -7 -7 -7 -6 -6 -5 -4 -4 -3 -3 -2 -2 -2 -1 -0 -0 0 1 1 -0 -1 -2 -3 -3 -4 -3 -2 -2 -1
-11 -11 -11 -11 -12 -12 -12 -12 5 7 9 10 6 8 -2 -2 -4 -6 -8 -8 -9 -9 -8 -8 -8 -8 -9 -9 -8 -6 3 2 -2 -3 -3 -3 -3 -3 -2 -2 3 7 7 3 -0 -1 -1 -1 -0 7 1 1 1 1 1 1 1 0 -1 -2 -3 -3 -3
-10 -10 -10 -11 -12 -12 -12 -12 -2 6 8 9 5 1 -4 -4 -5 -6 -7 -9 -9 -9 -9 -9 -8 -9 -8 -8 -8 -5 6 7 1 -1 -1 -1 -2 -1 -1 -1 -0 8 11 11 12 12 13 12 11 11 13 13 13 9 6 2 0 -0 -0 -1 -3 -3 -3
-10 -10 -10 -11 -12 -12 -13 -13 -7 5 7 9 3 -1 -5 -5 -6 -7 -7 -8 -9 -8 -8 -8 -4 -3 -5 -6 -5 4 6 8 2 -1 -2 -2 -2 -3 -2 -2 -0 0 2 10 11 12 12 11 11 12 12 12 13 13 11 6 4 2 1 -1 -2 -3 -3
-11 -11 -11 -12 -12 -10 -11 -12 -10 4 6 7 7 -7 -5 -4 -5 -8 -9 -8 -9 -8 -8 -7 -5 -3 -3 -3 -1 6 7 7 2 -2 -3 -2 -2 -2 -2 -1 -0 -1 -1 -0 -2 -4 -4 -4 1 -2 -2 -1 1 7 6 2 2 2 5 2 -0 -1 -2
-12 -12 -12 -12 -13 -14 -13 -14 -14 -11 5 6 8 -0 -6 -4 -6 -8 -9 -9 -9 -9 -9 -8 -7 -3 -2 4 5 6 7 8 7 0 -1 -0 -2 -3 -5 -3 -2 -0 -2 -4 -6 -7 -7 -7 -6 -5 -4 -3 -2 -1 0 1 1 2 2 3 4 2 0
-13 -14 -14 -14 -13 -14 -14 -14 -15 -13 4 5 7 -1 -1 -7 -6 -7 -7 -8 -8 -8 -8 -6 -8 -9 -6 0 5 4 8 6 8 7 -1 -2 -4 -4 -1 3 -4 -5 -4 -9 -9 -10 -10 -10 -9 -8 -7 -5 -4 -2 -1 1 2 2 3 3 3 3 3
-14 -14 -14 -14 -14 -15 -15 -14 -12 -14 -2 4 6 6 -6 -7 -6 -4 -5 -6 -6 -7 -7 -8 -10 -13 -9 -7 3 -2 2 6 5 6 -1 -4 5 6 5 -4 -6 -9 -10 -11 -12 -12 -12 -12 -11 -10 -9 -8 -6 -3 0 2 4 4 4 5 6 5 4
-16 -16 -16 -16 -15 -15 -15 -15 -15 -12 -13 -4 6 7 5 -4 -0 3 -10 -7 -7 -8 -8 -11 -12 -11 -8 -6 3 -2 3 4 4 2 -2 2 1 5 -0 -6 -12 -11 -13 -13 -13 -13 -14 -13 -13 -12 -12 -10 -8 -5 -2 -1 1 2 4 5 6 8 8
-16 -16 -17 -17 -17 -16 -16 -16 -16 -12 -11 -11 -0 6 7 6 6 1 -5 -5 -7 -10 -11 -12 -13 -12 2 4 -1 -1 -1 2 -2 -3 5 5 3 -7 -7 -11 -13 -14 -14 -13 -14 -14 -15 -15 -14 -13 -12 -11 -10 -8 -6 -3 0 4 7 7 6 7 8
-16 -17 -17 -17 -17 -17 -16 -16 -16 -16 -14 -11 -10 4 6 6 6 0 -4 -8 -10 -10 -11 -8 2 -9 -6 1 1 3 2 -5 -9 -5 -6 -8 -8 -9 -15 -14 -15 -14 -14 -15 -16 -15 -15 -15 -14 -12 -11 -10 -8 -6 -5 -3 -4 -2 -0 3 8 7 7
-16 -16 -17 -17 -17 -17 -17 -16 -16 -16 -17 -13 -11 -11 -1 4 -2 -5 -6 -7 -9 -7 -7 -4 0 -7 -7 -6 -6 -9 -13 -13 -12 -10 -11 -11 -11 -16 -15 -15 -15 -15 -15 -16 -16 -15 -15 -14 -14 -13 -12 -11 -10 -10 -9 -7 -4 -3 -1 1 4 5 6
-16 -17 -17 -17 -17 -17 -17 -16 -16 -16 -16 -16 -16 -15 -14 -13 -12 -9 -8 -9 -10 -8 -10 -10 -9 -8 -6 -9 -11 -12 -13 -14 -14 -15 -16 -18 -18 -17 -16 -15 -15 -15 -16 -15 -15 -15 -15 -14 -14 -13 -13 -13 -12 -10 -9 -6 -4 -3 -2 1 5 5 4
-17 -17 -16 -17 -16 -16 -15 -15 -14 -14 -15 -15 -15 -14 -14 -13 -12 -12 -13 -13 -12 -12 -11 -9 -8 -15 -19 -19 -20 -21 -24 -24 -22 -18 -17 -19 -20 -18 -16 -15 -14 -14 -15 -15 -15 -15 -14 -14 -14 -15 -14 -12 -10 -9 -7 -6 -5 -4 -3 1 4 4 3
-14 -13 -14 -13 -13 -13 -13 -13 -12 -12 -8 -11 -8 -10 -9 -8 -9 -9 -9 -6 -5 -8 -16 -18 -21 -22 -23 -26 -23 -24 -25 -25 -25 -22 -21 -21 -21 -19 -18 -18 -18 -18 -17 -17 -16 -17 -17 -17 -16 -16 -14 -13 -14 -12 -11 -9 -7 -5 -3 -1 2 4 4
-5 -5 -6 -6 -6 -8 -11 -11 -10 -4 2 -0 -1 1 -2 -4 -2 -4 -6 -7 -9 -14 -24 -29 -30 -28 -28 -27 -28 -27 -26 -25 -26 -24 -23 -22 -19 -20 -20 -19 -18 -18 -18 -18 -18 -18 -18 -18 -16 -16 -16 -16 -15 -14 -12 -10 -6 -7 -5 -3 -1 4 4
7 7 -0 -3 -5 -4 -4 -5 -6 -6 1 2 0 1 -3 -2 -5 -5 -6 -10 -18 -24 -28 -27 -28 -28 -28 -28 -29 -28 -27 -26 -25 -24 -23 -23 -22 -22 -21 -20 -19 -20 -19 -19 -19 -19 -18 -17 -16 -17 -17 -17 -16 -15 -14 -12 -9 -8 -7 -4 2 5 4
6 6 5 -1 -4 -5 -5 -5 -6 -6 2 2 2 -0 -0 -1 -4 -2 -5 -14 -19 -28 -30 -32 -31 -31 -30 -29 -29 -27 -25 -26 -26 -25 -25 -24 -23 -23 -22 -21 -21 -20 -20 -20 -20 -20 -18 -17 -18 -18 -18 -18 -17 -16 -16 -15 -14 -11 -9 -4 4 6 5
4 3 3 4 4 4 3 -3 -5 -5 2 2 2 2 -6 -1 -3 -9 -9 -18 -26 -33 -31 -33 -32 -32 -32 -30 -29 -29 -29 -27 -26 -26 -25 -25 -24 -24 -23 -22 -21 -19 -21 -21 -20 -19 -18 -18 -18 -18 -18 -18 -18 -18 -19 -17 -15 -13 -10 -6 -2 5 6
-4 -4 -9 -4 -0 2 2 1 0 -0 -1 -0 1 0 -0 -6 -13 -3 -4 -18 -30 -31 -32 -33 -33 -31 -31 -31 -29 -29 -28 -27 -27 -26 -26 -25 -25 -24 -24 -23 -21 -21 -22 -21 -21 -19 -19 -19 -19 -18 -19 -20 -20 -20 -19 -19 -16 -14 -12 -10 -7 -2 4
-19 -15 -14 -15 -14 -13 -12 -12 -12 -12 -12 -12 -12 -9 -5 -5 -23 -26 -27 -27 -31 -30 -32 -32 -32 -32 -30 -32 -31 -30 -29 -28 -29 -28 -27 -26 -26 -26 -25 -23 -22 -23 -23 -21 -20 -20 -21 -20 -19 -20 -20 -21 -22 -22 -22 -20 -18 -16 -14 -12 -9 -5 -2
-20 -19 -15 -15 -14 -14 -13 -13 -13 -13 -13 -2 2 -1 -8 -23 -25 -26 -29 -29 -32 -32 -31 -31 -31 -32 -30 -32 -32 -31 -31 -32 -30 -29 -28 -28 -27 -26 -25 -25 -24 -23 -23 -21 -21 -22 -21 -20 -20 -20 -21 -22 -22 -22 -21 -21 -19 -17 -14 -12 -10 -7 -5

ECMWFFLT1_sfc_dewp_108.txt.gz
Dewpoint
-13 -13 -12 -13 -11 -12 -13 -13 -13 -12 -12 -12 -11 -11 -12 -12 -12 -12 -11 -10 -11 -11 -10 -9 -8 -9 -9 -9 -8 -7 -7 -7 -8 -7 -7 -6 -7 -7 -7 -7 -8 -10 -10 -10 -10 -10 -11 -11 -11 -11 -11 -11 -10 -9 -10 -4 -10 -11 -12 -11 -11 -10 4
-13 -11 -12 -12 -13 -13 -13 -12 -13 -13 -12 -11 -11 -12 -12 -11 -11 -11 -11 -10 -11 -10 -9 -9 -8 -9 -9 -9 -8 -8 -8 -7 -7 -7 -7 -7 -7 -7 -7 -7 -8 -9 -9 -10 -10 -10 -10 -10 -10 -11 -11 -11 -11 -10 -8 -9 -10 -10 -11 -10 -11 -10 -11
-11 -11 -11 -12 -11 -12 -13 -12 -12 -12 -11 -10 -10 -11 -11 -11 -11 -11 -11 -10 -10 -10 -10 -9 -8 -8 -8 -9 -8 -8 -8 -8 -8 -7 -7 -8 -7 -8 -8 -8 -8 -8 -10 -10 -10 -10 -11 -11 -10 -11 -11 -11 -10 -9 -9 -9 -9 -8 -8 -8 -10 -9 -9
-11 -11 -12 -12 -11 -11 -12 -12 -11 -10 -10 -9 -10 -10 -9 -10 -10 -10 -10 -9 -9 -10 -9 -8 -9 -9 -8 -8 -8 -8 -8 -8 -7 -7 -7 -8 -8 -7 -8 -9 -9 -9 -8 -9 -10 -10 -10 -10 -10 -10 -10 -10 -9 -9 -9 -9 -7 -7 -6 -7 -6 -8 -8
-10 -11 -11 -12 -11 -11 -12 -11 -10 -10 -10 -10 -10 -10 -9 -8 -7 -7 -8 -8 -8 -6 -7 -8 -9 -8 -8 -9 -9 -10 -9 -8 -9 -8 -8 -8 -7 -7 -7 -8 -8 -8 -7 -8 -9 -10 -10 -10 -10 -10 -10 -10 -11 -11 -10 -9 -9 -7 -6 -6 -7 -6 -7
-11 -9 -11 -11 -11 -11 -11 -10 -10 -10 -10 -10 -10 -9 -9 -7 -7 -8 -8 -8 -8 -8 -8 -8 -9 -9 -8 -9 -10 -10 -10 -10 -10 -10 -10 -9 -9 -8 -8 -8 -8 -8 -8 -8 -9 -9 -10 -10 -11 -11 -11 -11 -11 -12 -12 -9 -8 -7 -7 -6 -7 -6 -6
-10 -9 -9 -9 -9 -9 -9 -9 -9 -9 -10 -9 -9 -8 -8 -8 -8 -9 -8 -8 -8 -8 -8 -8 -8 -9 -9 -10 -10 -10 -11 -11 -11 -11 -11 -10 -10 -9 -9 -9 -9 -9 -8 -8 -9 -9 -10 -11 -10 -11 -12 -12 -11 -11 -12 -12 -11 -10 -8 -7 -7 -7 -6
-9 -9 -8 -9 -9 -8 -8 -8 -9 -9 -9 -8 -8 -8 -9 -8 -9 -9 -9 -8 -8 -8 -9 -9 -9 -9 -9 -9 -9 -10 -10 -10 -11 -10 -11 -10 -10 -10 -10 -10 -10 -9 -9 -9 -10 -10 -11 -11 -11 -11 -11 -11 -11 -10 -10 -11 -11 -11 -11 -9 -8 -7 -7
-8 -8 -8 -8 -8 -8 -8 -8 -8 -8 -8 -9 -9 -10 -10 -9 -9 -8 -9 -9 -9 -9 -9 -9 -9 -9 -9 -8 -6 -6 -6 -6 -6 -10 -10 -10 -10 -10 -10 -10 -9 -9 -9 -10 -11 -11 -11 -11 -11 -11 -12 -12 -12 -12 -12 -12 -11 -10 -10 -9 -9 -8 -6
-8 -8 -8 -9 -8 -9 -10 -9 -9 -6 -2 2 -4 -7 -8 -8 -7 -7 -7 -7 -8 -8 -9 -9 -9 -9 -6 -5 -4 -4 -3 -2 -2 -2 -5 -8 -9 -9 -9 -9 -10 -10 -10 -10 -11 -12 -12 -12 -12 -11 -11 -12 -12 -12 -11 -11 -11 -11 -11 -10 -9 -9 -7
-8 -9 -9 -10 -10 -10 -10 -10 -9 -3 7 9 11 4 2 0 -0 -1 -1 -2 -4 -5 -5 -6 -7 -8 -6 -4 -2 -3 -1 -1 -0 -0 -0 -0 -0 -1 -4 -7 -8 -9 -8 -9 -10 -10 -11 -11 -11 -11 -11 -11 -11 -11 -11 -11 -11 -10 -10 -10 -11 -12 -9
-10 -10 -10 -10 -11 -11 -10 -10 -5 7 9 11 11 9 2 2 1 1 1 0 -0 -2 -2 -3 -3 -5 -6 -6 -6 -5 -5 -3 -2 -2 -2 -1 -1 -1 1 4 -1 -5 -7 -7 -8 -8 -9 -9 -9 -9 -9 -9 -9 -9 -9 -9 -9 -9 -9 -10 -10 -10 -10
-8 -10 -10 -11 -10 -11 -11 -11 2 8 10 11 11 11 6 1 1 1 1 0 -0 -1 -2 -3 -4 -6 -7 -8 -3 -3 -5 -7 -7 -3 -3 -3 -2 -2 -1 7 7 4 -1 -2 -4 -5 -5 -5 -5 -6 -6 -6 -6 -6 -8 -8 -8 -8 -8 -8 -8 -8 -8
-10 -9 -11 -11 -12 -11 -11 -11 -7 7 10 11 11 11 7 1 2 2 1 1 0 -2 -4 -6 -7 -8 -9 -9 -9 -8 -8 -9 -9 -9 -9 -8 -7 -7 -5 -2 1 -0 0 -0 -3 -4 -5 -4 -4 -5 -5 -5 -2 -5 -6 -6 -7 -7 -7 -7 -6 -6 -5
-11 -11 -11 -12 -12 -12 -12 -12 3 9 10 11 11 11 8 2 2 1 -0 -1 -3 -4 -6 -7 -8 -8 -9 -9 -10 -10 -9 -11 -11 -11 -11 -11 -11 -10 -10 -9 -9 -9 -8 -8 -8 -8 -8 -8 -7 -7 -6 -5 -4 -5 -5 -4 -5 -4 -4 -3 -2 -2 -2
-12 -12 -12 -11 -12 -13 -12 -12 6 9 11 11 11 11 3 3 2 1 -1 -4 -6 -8 -8 -8 -9 -9 -10 -10 -10 -8 -2 -2 -6 -9 -11 -11 -11 -11 -11 -10 -5 5 3 -3 -7 -8 -8 -7 -7 3 -5 -4 -4 -4 -3 -2 -2 -1 -2 -2 -3 -4 -3
-11 -11 -11 -11 -12 -13 -12 -12 -1 7 9 10 11 8 2 1 -1 -3 -4 -5 -7 -9 -9 -9 -10 -10 -10 -10 -11 -8 6 8 2 -4 -5 -7 -8 -9 -10 -10 -9 3 4 7 5 6 9 11 8 7 8 9 9 6 6 2 -1 -3 -2 -4 -5 -5 -5
-11 -11 -11 -11 -12 -12 -12 -12 -7 5 8 10 11 7 2 2 -0 -1 -2 -4 -7 -9 -9 -9 -5 -5 -9 -10 -10 2 7 8 0 -1 -2 -5 -6 -7 -7 -7 -6 -6 -4 9 9 9 9 8 8 7 9 7 7 8 5 -4 -7 -8 -7 -9 -9 -10 -10
-12 -12 -11 -11 -12 -9 -10 -11 -9 4 7 9 9 5 1 -0 -2 -4 -5 -6 -7 -9 -9 -9 -6 -4 -5 -6 -5 7 8 6 -2 -2 -2 -3 -5 -6 -7 -6 -5 -4 -4 -4 -4 -7 -9 -9 -3 -11 -12 -10 -7 -2 -4 -8 -10 -9 -11 -12 -12 -11 -11
-13 -13 -12 -12 -12 -13 -12 -13 -13 -10 5 7 9 9 1 0 -2 -3 -4 -5 -7 -10 -11 -11 -10 -7 -3 7 5 8 8 3 4 -1 -2 -2 -3 -3 -4 -2 -2 -2 -1 -5 -7 -11 -15 -14 -13 -13 -14 -15 -14 -13 -11 -10 -9 -9 -9 -10 -11 -10 -10
-14 -14 -14 -14 -13 -14 -14 -14 -15 -13 4 6 8 9 7 -0 -1 -2 -4 -6 -7 -9 -10 -10 -10 -10 -7 1 7 7 7 6 8 6 -1 -1 -3 -3 -1 -0 -7 -9 -6 -11 -13 -14 -14 -15 -15 -15 -15 -15 -15 -14 -13 -12 -10 -10 -9 -10 -11 -11 -11
-15 -16 -15 -15 -15 -15 -15 -14 -12 -14 -3 4 6 8 8 1 -0 -1 -2 -4 -6 -7 -8 -9 -9 -10 -7 -5 5 7 6 6 7 6 -3 -2 4 5 4 -7 -9 -13 -16 -15 -16 -18 -17 -17 -18 -17 -17 -16 -15 -14 -13 -14 -13 -12 -12 -11 -10 -11 -11
-19 -18 -18 -17 -16 -16 -16 -17 -16 -12 -13 -5 5 7 8 7 3 6 -1 -3 -4 -4 -5 -5 -7 -6 -4 -2 6 4 4 4 6 2 -2 4 3 3 -2 -9 -18 -17 -19 -21 -20 -21 -21 -20 -20 -19 -18 -17 -17 -16 -16 -15 -14 -14 -13 -11 -11 -10 -10
-20 -20 -20 -20 -18 -18 -18 -18 -17 -13 -12 -12 -1 5 7 8 8 3 -3 -2 -3 -3 -3 -5 -9 -9 4 -0 2 1 4 1 -1 -2 3 3 1 -7 -10 -19 -21 -23 -23 -21 -22 -21 -21 -21 -21 -21 -20 -18 -17 -15 -16 -15 -14 -14 -14 -14 -14 -13 -11
-20 -20 -20 -19 -19 -19 -18 -18 -18 -18 -15 -12 -11 3 7 8 7 1 -1 -4 -5 -6 -10 -5 3 4 2 0 1 2 3 -6 -9 -7 -6 -8 -9 -10 -25 -24 -25 -25 -25 -24 -23 -22 -21 -21 -19 -19 -18 -16 -15 -15 -15 -16 -16 -15 -15 -14 -14 -13 -12
-20 -20 -20 -20 -19 -19 -19 -18 -18 -18 -18 -14 -13 -12 -3 4 -0 -2 -3 -4 -5 -4 -4 -2 1 -3 -3 -4 -5 -8 -15 -14 -16 -10 -11 -13 -14 -25 -25 -25 -26 -27 -26 -24 -23 -22 -21 -20 -20 -20 -19 -17 -17 -18 -18 -18 -17 -17 -16 -15 -14 -15 -15
-19 -20 -20 -20 -20 -19 -19 -19 -19 -18 -18 -17 -17 -17 -15 -14 -14 -10 -8 -9 -10 -7 -9 -9 -8 -7 -6 -5 -7 -9 -10 -12 -15 -19 -21 -25 -25 -25 -26 -24 -26 -25 -24 -23 -23 -21 -21 -20 -20 -19 -18 -20 -20 -20 -19 -18 -17 -16 -17 -16 -16 -16 -16
-20 -20 -20 -20 -20 -20 -20 -19 -18 -18 -17 -17 -16 -16 -15 -16 -15 -16 -15 -15 -15 -14 -13 -12 -7 -10 -21 -22 -23 -25 -27 -28 -27 -25 -24 -25 -28 -26 -24 -19 -16 -16 -21 -24 -24 -23 -22 -21 -21 -22 -22 -21 -21 -20 -20 -18 -16 -17 -18 -17 -16 -17 -18
-17 -17 -18 -18 -18 -18 -18 -17 -16 -15 -11 -13 -10 -12 -14 -14 -14 -15 -14 -12 -9 -10 -14 -16 -21 -23 -24 -26 -25 -27 -28 -28 -28 -28 -28 -29 -30 -31 -30 -30 -28 -29 -27 -26 -25 -25 -24 -23 -23 -23 -22 -21 -22 -21 -20 -18 -18 -18 -18 -17 -18 -19 -19
-11 -13 -13 -13 -13 -13 -14 -14 -12 -5 6 6 3 3 -2 -2 3 -1 -5 -5 -5 -5 -18 -24 -25 -28 -29 -28 -30 -29 -29 -28 -30 -29 -30 -31 -22 -24 -29 -28 -28 -28 -27 -26 -24 -24 -24 -24 -24 -24 -24 -23 -23 -22 -20 -18 -17 -19 -18 -20 -21 -21 -21
9 8 2 -0 -3 -5 -4 -4 -3 -1 6 5 5 5 3 1 -3 -2 -1 -3 -13 -22 -24 -27 -27 -28 -30 -28 -31 -30 -29 -30 -30 -29 -30 -30 -31 -31 -28 -25 -28 -29 -26 -25 -25 -25 -25 -24 -24 -25 -24 -24 -23 -21 -21 -21 -19 -19 -20 -21 -22 -22 -23
9 8 4 2 -1 -2 -3 -2 -2 -4 4 5 4 4 4 4 4 4 -1 -6 -9 -25 -29 -30 -29 -31 -31 -32 -32 -31 -30 -30 -32 -31 -31 -32 -32 -31 -30 -28 -29 -28 -30 -28 -28 -28 -26 -26 -26 -25 -24 -23 -22 -21 -22 -22 -22 -22 -22 -22 -23 -23 -23
6 7 6 6 6 6 5 0 -2 -1 5 4 4 4 -3 1 2 -5 -6 -9 -22 -28 -31 -34 -34 -31 -33 -33 -30 -30 -33 -31 -33 -32 -31 -33 -32 -31 -32 -30 -29 -27 -29 -28 -28 -27 -27 -26 -25 -24 -23 -23 -22 -22 -24 -23 -23 -23 -23 -24 -25 -24 -23
-1 -0 -7 -4 1 2 3 4 3 3 1 2 2 1 -0 -7 -9 1 -0 -12 -25 -30 -32 -35 -35 -31 -33 -33 -32 -32 -32 -33 -32 -32 -32 -32 -31 -31 -32 -31 -31 -33 -30 -29 -28 -29 -28 -27 -26 -25 -25 -25 -25 -24 -23 -24 -23 -24 -25 -26 -26 -26 -26
-20 -16 -14 -15 -14 -13 -12 -12 -11 -11 -11 -11 -11 -11 -5 3 -10 -15 -19 -26 -30 -30 -32 -33 -32 -32 -31 -33 -32 -31 -31 -32 -34 -33 -33 -32 -32 -32 -33 -32 -32 -31 -31 -31 -31 -30 -30 -28 -27 -26 -24 -24 -25 -26 -26 -26 -25 -25 -25 -26 -26 -25 -25
-20 -21 -15 -15 -14 -14 -13 -12 -12 -12 -12 -3 2 0 -5 -19 -23 -24 -25 -25 -29 -32 -30 -30 -30 -32 -31 -31 -34 -32 -33 -32 -32 -32 -32 -34 -33 -32 -32 -32 -33 -31 -32 -31 -31 -30 -29 -27 -28 -27 -27 -27 -27 -27 -26 -25 -25 -25 -25 -25 -25 -24 -23

ECMWFFLT1_sfc_dewp_111.txt.gz
Dewpoint
-13 -13 -13 -13 -12 -13 -12 -12 -11 -12 -12 -12 -12 -12 -13 -13 -12 -12 -13 -12 -12 -11 -10 -10 -7 -9 -9 -9 -7 -8 -8 -9 -10 -10 -10 -9 -10 -10 -8 -8 -8 -9 -9 -11 -11 -13 -13 -13 -12 -12 -12 -12 -11 -11 -11 -5 -11 -12 -13 -13 -13 -12 3
-13 -12 -13 -13 -13 -13 -13 -12 -12 -13 -12 -12 -12 -13 -12 -12 -12 -13 -13 -12 -12 -11 -8 -7 -7 -8 -9 -9 -6 -6 -7 -8 -9 -7 -8 -9 -8 -10 -8 -9 -8 -8 -9 -9 -11 -12 -13 -12 -12 -12 -11 -12 -12 -12 -11 -11 -11 -11 -11 -12 -12 -12 -12
-12 -11 -12 -12 -12 -13 -12 -12 -12 -12 -10 -10 -11 -12 -12 -12 -12 -12 -12 -12 -11 -11 -10 -7 -6 -6 -6 -7 -7 -7 -7 -7 -7 -7 -8 -8 -8 -8 -10 -10 -9 -8 -9 -9 -10 -12 -12 -12 -12 -12 -12 -12 -11 -11 -11 -11 -11 -11 -10 -10 -11 -12 -12
-12 -11 -12 -11 -11 -11 -12 -12 -12 -10 -11 -9 -10 -10 -9 -11 -11 -11 -10 -9 -10 -10 -8 -7 -7 -7 -7 -6 -7 -7 -8 -8 -7 -8 -8 -8 -7 -8 -9 -11 -10 -9 -8 -8 -9 -10 -11 -11 -12 -12 -12 -12 -12 -12 -11 -11 -8 -10 -7 -10 -9 -11 -11
-10 -11 -11 -11 -11 -11 -11 -11 -11 -11 -11 -11 -11 -10 -9 -7 -5 -7 -6 -7 -7 -5 -5 -6 -6 -6 -6 -6 -7 -7 -8 -8 -7 -7 -8 -8 -8 -8 -8 -8 -10 -9 -7 -8 -9 -9 -10 -10 -11 -11 -11 -11 -12 -12 -12 -11 -11 -8 -7 -7 -10 -9 -10
-9 -9 -10 -11 -11 -11 -11 -11 -11 -11 -10 -10 -10 -10 -9 -5 -5 -6 -5 -5 -6 -6 -5 -5 -6 -7 -6 -6 -7 -8 -8 -7 -7 -7 -8 -8 -8 -8 -7 -7 -7 -7 -7 -7 -8 -8 -9 -10 -11 -12 -12 -12 -12 -12 -12 -10 -9 -8 -7 -7 -7 -7 -6
-9 -9 -9 -10 -10 -9 -10 -9 -10 -9 -9 -9 -9 -6 -4 -5 -5 -7 -5 -5 -5 -5 -5 -5 -5 -5 -6 -6 -6 -7 -7 -7 -8 -8 -8 -8 -8 -8 -7 -7 -8 -7 -7 -8 -8 -8 -9 -10 -10 -11 -12 -12 -12 -12 -12 -12 -12 -11 -9 -8 -8 -8 -7
-8 -10 -9 -9 -9 -9 -8 -8 -8 -8 -8 -7 -5 -5 -5 -6 -5 -6 -6 -6 -6 -5 -5 -5 -5 -5 -6 -6 -6 -7 -7 -7 -9 -9 -9 -9 -8 -8 -8 -9 -9 -8 -8 -9 -9 -10 -10 -11 -12 -12 -13 -12 -11 -11 -11 -13 -13 -13 -12 -10 -9 -8 -8
-7 -8 -8 -9 -8 -8 -6 -5 -5 -5 -5 -5 -5 -6 -6 -6 -6 -6 -6 -6 -6 -5 -5 -6 -6 -6 -6 -5 -4 -4 -5 -5 -6 -9 -10 -9 -8 -8 -9 -9 -9 -9 -9 -9 -10 -10 -10 -11 -11 -12 -12 -12 -12 -12 -13 -13 -12 -11 -11 -10 -11 -9 -7
-6 -5 -6 -7 -6 -6 -6 -6 -6 -4 -1 2 -3 -6 -6 -6 -6 -6 -6 -6 -6 -6 -6 -6 -6 -6 -4 -4 -4 -3 -3 -3 -3 -3 -6 -8 -8 -9 -8 -9 -9 -9 -9 -9 -10 -11 -11 -11 -11 -12 -13 -13 -13 -13 -12 -12 -13 -13 -13 -12 -9 -9 -8
-5 -6 -6 -7 -7 -7 -7 -7 -7 -2 6 9 10 6 2 -0 -2 -2 -4 -5 -6 -6 -6 -5 -5 -6 -5 -4 -3 -3 -2 -2 -1 -1 -1 -1 -2 -3 -7 -9 -9 -9 -9 -10 -10 -11 -10 -11 -11 -11 -12 -12 -12 -12 -13 -13 -13 -13 -11 -10 -11 -11 -8
-7 -7 -7 -8 -8 -8 -8 -8 -4 6 8 10 11 11 5 5 5 4 2 -1 -2 -2 -2 -2 -4 -4 -5 -6 -5 -5 -4 -2 -0 0 0 0 1 1 2 4 -4 -8 -8 -8 -9 -9 -9 -9 -10 -10 -9 -9 -9 -10 -10 -9 -10 -8 -9 -8 -9 -9 -9
-7 -8 -8 -9 -8 -9 -9 -9 2 8 10 11 12 12 9 4 5 4 3 3 2 2 1 0 -0 -2 -3 -5 -3 -3 -4 -5 -4 -1 0 -0 -0 -0 0 7 7 4 -2 -5 -7 -7 -8 -7 -7 -7 -7 -7 -8 -7 -7 -8 -8 -7 -7 -7 -8 -9 -9
-8 -8 -9 -9 -9 -9 -9 -9 -6 7 9 10 12 13 9 4 5 4 4 3 2 2 0 0 -1 -2 -2 -3 -4 -3 -3 -4 -5 -5 -4 -4 -3 -3 -3 -1 1 1 1 1 -1 -2 -3 -3 -2 -4 -4 -2 -1 -3 -5 -6 -6 -6 -6 -6 -6 -6 -5
-9 -9 -9 -9 -10 -10 -10 -10 3 8 10 11 12 12 9 4 4 4 4 3 2 2 1 -0 -1 -2 -3 -3 -5 -6 -5 -5 -5 -6 -6 -6 -7 -7 -6 -6 -5 -5 -4 -4 -5 -5 -5 -5 -4 -4 -4 -3 -3 -3 -4 -4 -5 -4 -4 -4 -3 -3 -2
-10 -10 -10 -9 -10 -11 -10 -10 6 9 10 11 12 12 5 4 4 3 2 1 1 0 -1 -1 -2 -3 -4 -4 -5 -4 0 -0 -5 -7 -8 -9 -9 -9 -8 -8 -5 5 4 -4 -6 -7 -6 -6 -6 2 -4 -5 -4 -4 -3 -4 -4 -3 -3 -4 -5 -6 -6
-10 -9 -9 -10 -11 -11 -10 -10 -1 7 9 11 12 9 3 3 2 -0 0 -1 -2 -3 -3 -3 -3 -4 -5 -5 -6 -5 7 7 1 -2 -5 -8 -9 -9 -10 -10 -9 4 -0 7 6 3 5 8 6 9 8 10 9 4 2 1 -2 -3 -3 -5 -8 -9 -9
-9 -10 -10 -10 -10 -10 -11 -10 -6 5 9 10 12 9 3 3 2 1 1 -0 -1 -2 -3 -4 -3 -3 -6 -6 -6 3 7 7 2 -2 -2 -3 -6 -8 -9 -9 -8 -8 -6 8 4 6 9 8 8 8 8 8 8 8 5 -5 -8 -8 -9 -11 -11 -12 -12
-11 -11 -11 -10 -10 -8 -8 -9 -8 4 8 10 11 6 2 -0 -2 -3 -4 -5 -5 -5 -5 -6 -4 -2 -2 -5 -4 8 8 5 -1 -2 -2 -3 -3 -5 -6 -6 -6 -6 -7 -7 -7 -6 -5 -5 -0 -8 -11 -10 -7 -4 -4 -9 -11 -12 -13 -15 -15 -15 -15
-11 -11 -11 -10 -10 -11 -10 -10 -10 -8 5 8 9 10 3 1 0 -1 -2 -3 -4 -5 -5 -6 -7 -5 -1 7 8 6 3 3 3 -1 -1 -2 -4 -5 -6 -4 -3 -4 -5 -5 -5 -5 -7 -10 -11 -12 -12 -12 -14 -13 -12 -12 -11 -12 -13 -14 -14 -14 -14
-12 -12 -12 -12 -11 -12 -12 -12 -12 -11 4 6 8 9 7 1 -0 -0 -2 -2 -4 -5 -6 -7 -7 -8 -5 3 7 7 8 8 8 8 0 -1 -2 -2 -1 2 -3 -4 -3 -9 -11 -13 -13 -14 -15 -15 -16 -16 -15 -15 -15 -14 -12 -12 -11 -12 -13 -13 -14
-13 -14 -13 -13 -13 -13 -13 -13 -11 -13 -3 4 7 8 9 2 0 -1 -2 -4 -6 -6 -7 -7 -8 -8 -6 -4 6 7 7 9 8 9 1 0 6 6 4 -8 -8 -12 -14 -14 -15 -16 -17 -17 -18 -18 -18 -17 -17 -16 -15 -15 -14 -13 -13 -13 -11 -12 -13
-16 -16 -16 -16 -15 -15 -15 -15 -15 -12 -12 -4 5 6 7 8 5 7 1 -1 -2 -2 -4 -4 -5 -6 -4 -3 7 2 6 7 9 4 -1 4 5 4 -1 -9 -16 -15 -17 -18 -19 -19 -20 -19 -19 -20 -19 -19 -18 -17 -15 -16 -15 -14 -14 -14 -13 -12 -11
-17 -18 -18 -18 -17 -17 -16 -16 -17 -13 -12 -12 -1 4 6 7 8 8 1 0 -0 -1 -2 -3 -3 -4 5 6 1 2 7 6 1 -2 3 3 1 -5 -8 -18 -19 -20 -21 -20 -21 -21 -21 -21 -20 -20 -20 -20 -19 -18 -16 -16 -15 -15 -14 -14 -14 -12 -12
-18 -18 -18 -18 -18 -18 -17 -17 -17 -18 -15 -12 -11 3 6 7 7 4 1 -2 -2 -2 -3 -3 4 6 4 1 4 4 4 -0 -4 -3 -4 -7 -7 -8 -21 -21 -23 -23 -23 -23 -22 -22 -22 -21 -21 -20 -19 -17 -16 -16 -15 -15 -16 -15 -15 -15 -15 -14 -14
-18 -18 -19 -19 -18 -18 -18 -18 -18 -18 -18 -14 -13 -12 -2 4 1 -1 -1 -2 -3 -2 -2 -0 3 -1 -2 -2 -3 -5 -9 -11 -13 -8 -7 -8 -11 -23 -22 -23 -24 -24 -24 -23 -23 -22 -22 -21 -21 -21 -20 -18 -17 -18 -19 -18 -18 -19 -19 -18 -18 -18 -17
-18 -18 -18 -19 -19 -19 -19 -19 -18 -18 -18 -18 -17 -17 -16 -14 -13 -10 -8 -9 -9 -7 -8 -7 -6 -6 -5 -5 -4 -4 -4 -6 -9 -17 -18 -22 -23 -23 -24 -23 -24 -23 -23 -23 -23 -22 -22 -21 -21 -21 -20 -21 -21 -20 -20 -19 -19 -20 -20 -19 -19 -19 -19
-18 -18 -18 -19 -19 -19 -19 -18 -18 -18 -18 -17 -17 -17 -16 -16 -16 -16 -16 -15 -14 -13 -13 -11 -8 -9 -10 -12 -15 -16 -20 -21 -23 -23 -22 -23 -24 -24 -23 -19 -15 -15 -19 -20 -22 -22 -23 -23 -24 -24 -23 -22 -22 -21 -21 -20 -20 -21 -21 -20 -19 -20 -21
-18 -18 -18 -18 -18 -18 -17 -17 -17 -16 -12 -13 -10 -12 -15 -15 -15 -15 -14 -12 -9 -11 -12 -13 -13 -15 -15 -16 -16 -17 -18 -21 -23 -24 -26 -27 -27 -27 -26 -26 -26 -26 -25 -25 -25 -26 -25 -25 -24 -24 -23 -23 -23 -23 -23 -22 -22 -21 -21 -21 -20 -21 -21
-13 -15 -15 -14 -13 -14 -14 -13 -11 -5 7 8 5 6 -0 -3 3 -3 -7 -7 -6 -6 -9 -11 -13 -15 -16 -18 -20 -20 -22 -24 -25 -26 -27 -28 -21 -23 -25 -25 -26 -26 -26 -26 -25 -25 -25 -25 -24 -25 -25 -25 -25 -25 -24 -23 -20 -22 -21 -21 -22 -23 -22
9 10 4 -3 -8 -6 -5 -5 -4 -2 7 7 6 3 6 4 0 1 1 0 -3 -5 -6 -11 -16 -18 -21 -21 -22 -23 -23 -25 -27 -27 -28 -27 -28 -28 -27 -26 -27 -27 -26 -25 -26 -26 -26 -25 -26 -26 -26 -26 -26 -26 -25 -25 -23 -22 -22 -23 -23 -23 -24
9 9 7 4 2 2 0 1 1 0 7 4 3 4 5 6 5 5 3 0 -3 -13 -18 -18 -18 -20 -22 -24 -25 -25 -26 -27 -28 -28 -28 -28 -29 -29 -28 -27 -27 -27 -28 -27 -27 -27 -27 -27 -28 -28 -27 -27 -27 -26 -26 -25 -25 -24 -24 -24 -24 -24 -24
8 8 8 8 8 8 7 2 -0 0 6 7 6 6 -0 4 4 -2 -3 -5 -10 -15 -17 -22 -22 -22 -24 -26 -25 -26 -27 -28 -28 -29 -29 -29 -29 -29 -29 -28 -27 -25 -26 -27 -27 -27 -28 -28 -28 -27 -27 -27 -27 -27 -27 -27 -26 -26 -25 -25 -25 -25 -24
-0 1 -5 -3 2 4 4 4 3 3 2 3 4 3 2 -5 -8 2 4 -4 -9 -17 -19 -22 -24 -26 -27 -27 -27 -28 -28 -29 -29 -29 -29 -29 -29 -29 -29 -28 -28 -29 -29 -28 -28 -28 -28 -28 -28 -28 -29 -29 -29 -28 -27 -27 -27 -27 -27 -27 -26 -26 -26
-18 -15 -13 -14 -13 -12 -11 -11 -11 -10 -10 -10 -10 -10 -4 4 -7 -12 -17 -22 -26 -24 -22 -24 -25 -26 -27 -28 -29 -29 -29 -29 -30 -30 -30 -29 -29 -29 -29 -30 -30 -30 -30 -29 -29 -29 -29 -29 -29 -29 -29 -29 -29 -29 -29 -29 -29 -29 -28 -27 -27 -26 -26
-19 -20 -15 -15 -14 -13 -12 -12 -12 -12 -12 -3 2 2 -3 -15 -20 -21 -22 -22 -23 -25 -24 -25 -25 -26 -26 -27 -28 -28 -29 -29 -29 -30 -30 -30 -30 -30 -30 -30 -30 -30 -30 -30 -30 -30 -29 -28 -29 -29 -29 -29 -30 -30 -30 -30 -29 -29 -28 -27 -27 -26 -27

ECMWFFLT1_sfc_dewp_114.txt.gz
Dewpoint
-12 -13 -13 -13 -12 -14 -13 -14 -14 -14 -14 -14 -14 -14 -14 -15 -15 -14 -14 -14 -15 -14 -12 -10 -7 -10 -8 -9 -5 -8 -6 -9 -10 -11 -9 -8 -11 -10 -8 -8 -8 -9 -9 -12 -12 -14 -15 -15 -15 -15 -14 -14 -12 -12 -11 -3 -11 -12 -12 -12 -13 -14 2
-12 -12 -12 -13 -13 -13 -14 -12 -14 -14 -14 -13 -12 -13 -14 -14 -13 -14 -14 -13 -14 -13 -12 -5 -4 -7 -9 -9 -4 -4 -5 -6 -6 -6 -9 -10 -7 -11 -8 -12 -9 -9 -9 -8 -10 -12 -13 -15 -15 -15 -14 -14 -13 -12 -10 -11 -12 -12 -13 -12 -11 -12 -14
-10 -9 -12 -12 -12 -13 -13 -13 -13 -13 -11 -11 -11 -12 -13 -13 -13 -13 -13 -12 -12 -12 -12 -7 -4 -4 -4 -5 -4 -4 -5 -4 -5 -6 -7 -7 -7 -8 -12 -12 -10 -8 -8 -7 -9 -12 -14 -16 -15 -14 -13 -13 -12 -11 -12 -12 -11 -11 -11 -11 -12 -11 -12
-10 -10 -11 -11 -11 -11 -13 -12 -11 -10 -11 -9 -10 -10 -9 -11 -12 -11 -12 -9 -11 -11 -11 -5 -6 -4 -4 -4 -4 -4 -7 -7 -5 -5 -5 -5 -6 -7 -11 -13 -12 -10 -7 -7 -8 -11 -14 -14 -13 -12 -12 -12 -11 -12 -12 -12 -8 -10 -5 -10 -8 -11 -11
-10 -10 -10 -11 -10 -11 -12 -11 -11 -10 -10 -10 -10 -10 -9 -9 -3 -6 -5 -6 -6 -3 -3 -5 -4 -6 -4 -4 -5 -4 -5 -5 -6 -5 -5 -5 -5 -7 -7 -7 -10 -11 -8 -7 -8 -10 -11 -11 -11 -10 -11 -11 -12 -12 -12 -11 -11 -7 -6 -6 -11 -12 -9
-9 -9 -10 -11 -11 -10 -10 -11 -11 -10 -10 -10 -11 -11 -10 -3 -3 -5 -3 -3 -5 -5 -3 -3 -3 -4 -4 -3 -3 -5 -5 -4 -5 -5 -6 -5 -5 -5 -5 -6 -7 -8 -6 -7 -9 -7 -9 -9 -10 -10 -10 -11 -12 -13 -13 -8 -7 -6 -5 -6 -7 -6 -4
-7 -7 -8 -8 -8 -8 -8 -8 -8 -9 -9 -9 -10 -4 -3 -4 -5 -7 -4 -3 -4 -3 -2 -2 -2 -2 -3 -3 -3 -3 -3 -3 -3 -4 -4 -4 -5 -5 -5 -5 -6 -6 -6 -7 -7 -6 -8 -9 -8 -10 -11 -11 -12 -12 -12 -13 -12 -10 -9 -7 -7 -8 -6
-5 -7 -7 -8 -8 -7 -7 -7 -7 -8 -9 -5 -3 -2 -2 -3 -3 -3 -3 -4 -3 -3 -2 -2 -2 -1 -1 -1 -1 -1 -0 -1 -3 -4 -4 -5 -5 -5 -5 -6 -6 -6 -7 -7 -6 -8 -8 -9 -10 -11 -11 -12 -12 -12 -11 -12 -12 -12 -11 -9 -8 -7 -7
-4 -4 -5 -6 -5 -6 -4 -2 -2 -2 -3 -2 -1 -1 -1 -2 -2 -3 -3 -3 -3 -2 -2 -1 -1 0 1 1 1 1 0 -0 -1 -4 -7 -5 -4 -5 -5 -6 -6 -7 -8 -8 -7 -8 -8 -9 -10 -11 -12 -12 -12 -9 -12 -12 -12 -10 -10 -11 -12 -9 -7
-1 1 1 -2 -1 -1 -1 -2 -2 -1 1 2 -1 1 1 0 -1 -1 -1 -2 -2 -1 -1 -1 -0 -0 1 1 0 0 0 0 0 0 -2 -6 -6 -5 -5 -6 -7 -8 -8 -7 -8 -9 -8 -9 -9 -10 -11 -12 -12 -12 -12 -12 -12 -13 -13 -13 -9 -10 -8
2 2 1 0 1 0 -1 -0 -0 3 7 7 8 5 2 -1 -1 -1 -1 -1 -1 -2 -2 -2 -0 -1 0 -0 0 -0 0 1 1 1 1 1 1 -1 -4 -6 -7 -7 -7 -8 -8 -8 -7 -9 -9 -9 -10 -11 -12 -12 -12 -12 -12 -13 -11 -11 -11 -11 -8
2 1 1 0 1 0 -1 -1 1 7 7 8 10 10 5 4 2 0 -0 -0 -0 -1 -2 -1 -1 -1 -1 -1 -1 -1 -1 0 1 2 2 2 3 2 2 4 -3 -6 -7 -7 -8 -8 -7 -7 -7 -7 -7 -7 -7 -10 -10 -10 -11 -8 -8 -9 -10 -10 -9
0 0 0 0 0 -1 -1 -1 4 7 9 10 12 13 10 5 6 5 5 5 3 2 1 1 0 0 0 -0 1 0 -0 -1 -1 1 3 3 3 3 3 9 7 5 -2 -6 -6 -7 -7 -7 -6 -6 -6 -5 -7 -5 -6 -7 -8 -6 -7 -7 -9 -10 -10
-1 -0 -0 -0 -1 -2 -2 -2 -0 8 8 10 12 13 12 7 7 6 6 6 7 6 4 3 2 2 1 2 1 1 -0 -1 -1 -2 -2 -0 0 0 1 2 3 2 3 2 -2 -4 -6 -4 -3 -5 -4 -2 -1 -3 -5 -6 -6 -5 -6 -5 -6 -6 -7
-1 -0 -1 -1 -3 -3 -3 -3 4 8 9 10 12 12 11 7 7 6 6 5 5 5 5 5 4 3 1 1 2 1 1 -1 -1 -1 -2 -2 -2 -1 -1 -1 -1 -1 -1 -1 -1 -1 -1 -0 0 -0 -1 -1 -1 -2 -2 -2 -3 -3 -3 -3 -2 -2 -2
-2 -2 -2 -3 -3 -4 -4 -5 6 8 10 11 12 12 7 6 6 5 5 5 5 4 3 3 3 2 2 2 1 3 4 3 -0 -1 -2 -3 -3 -3 -2 -2 1 6 6 -0 -2 -2 -2 -2 -1 5 -1 -1 -2 -3 -2 -3 -3 -2 -3 -5 -7 -8 -7
-4 -4 -3 -3 -3 -4 -5 -5 2 9 10 11 12 11 5 5 4 3 3 3 2 2 2 2 2 1 -0 -0 -0 1 8 8 3 0 -2 -3 -3 -4 -4 -5 -3 6 8 8 9 8 9 8 9 11 10 11 11 5 0 -4 -5 -6 -5 -6 -8 -8 -8
-5 -4 -4 -3 -4 -4 -6 -5 -2 7 9 11 12 10 5 3 2 1 1 0 1 1 0 1 2 2 0 -0 -1 5 8 8 3 -1 -1 -2 -3 -5 -5 -5 -4 -5 -3 9 9 8 6 9 9 8 9 10 10 9 6 0 -4 -4 -5 -7 -8 -10 -10
-4 -4 -5 -4 -4 -3 -5 -5 -4 5 8 11 12 8 5 3 2 0 -0 -1 -1 -0 -1 -1 0 1 1 1 1 8 9 8 2 0 -1 -2 -3 -4 -4 -5 -4 -4 -5 -5 -5 -5 -3 -3 1 -1 -2 -3 -1 2 2 -2 -3 -6 -8 -10 -10 -10 -11
-5 -4 -4 -4 -4 -5 -4 -5 -5 -3 7 10 11 11 5 3 0 -1 -1 -2 -3 -3 -2 -2 -3 -3 1 8 9 8 8 5 9 2 0 -1 -3 -4 -5 -2 -2 -3 -3 -4 -4 -4 -4 -4 -3 -3 -4 -6 -6 -5 -5 -6 -8 -9 -11 -11 -11 -11 -12
-4 -5 -5 -5 -4 -5 -5 -6 -6 -5 8 10 11 11 8 3 2 0 -1 -2 -2 -3 -4 -4 -4 -4 -1 3 7 8 7 7 8 9 2 1 -1 -1 -1 2 -3 -2 1 -2 -3 -4 -4 -5 -5 -6 -7 -7 -8 -9 -9 -7 -7 -8 -9 -11 -12 -12 -12
-6 -7 -6 -6 -6 -6 -6 -6 -6 -7 1 8 10 11 10 4 2 2 -1 -2 -3 -4 -4 -4 -5 -4 -2 -1 6 8 8 8 9 9 2 1 8 7 5 -0 1 -1 -3 -3 -3 -4 -6 -7 -8 -9 -9 -10 -10 -10 -11 -10 -10 -9 -9 -10 -10 -12 -14
-7 -8 -8 -8 -8 -7 -7 -7 -9 -6 -8 -0 7 9 10 10 7 9 3 0 -2 -3 -4 -4 -4 -3 -1 -0 7 8 8 8 8 6 2 9 9 6 4 -0 -5 -6 -6 -7 -7 -8 -9 -10 -11 -11 -11 -12 -12 -13 -11 -13 -12 -11 -11 -12 -12 -11 -11
-9 -9 -9 -10 -10 -10 -10 -9 -10 -8 -7 -8 2 7 9 9 10 10 4 2 -1 -2 -3 -3 -3 -2 5 7 8 7 4 6 1 -0 7 4 3 1 -2 -9 -10 -10 -10 -11 -11 -12 -12 -12 -12 -13 -14 -15 -15 -16 -14 -15 -13 -14 -13 -13 -15 -12 -12
-10 -10 -11 -11 -12 -12 -12 -12 -12 -13 -11 -8 -7 5 7 8 9 7 4 1 0 0 -1 0 6 6 6 6 5 6 6 2 2 3 3 2 1 -1 -8 -10 -12 -12 -13 -14 -14 -14 -15 -15 -16 -16 -16 -13 -13 -14 -14 -15 -15 -14 -14 -13 -13 -12 -12
-10 -11 -12 -13 -13 -13 -13 -13 -13 -14 -13 -11 -8 -8 1 6 4 3 3 2 -0 1 1 3 5 2 2 1 -0 -3 -3 -4 -4 -1 -0 -1 -2 -6 -9 -12 -14 -15 -16 -16 -16 -17 -17 -17 -17 -17 -17 -15 -15 -18 -19 -18 -18 -18 -18 -17 -17 -17 -16
-12 -12 -13 -14 -14 -14 -14 -14 -14 -14 -14 -14 -14 -13 -11 -9 -8 -4 -3 -5 -6 -4 -5 -5 -4 -4 -3 -3 -3 -3 -3 -3 -3 -5 -5 -7 -8 -11 -13 -16 -16 -16 -17 -17 -18 -18 -18 -18 -18 -18 -18 -20 -20 -20 -20 -19 -19 -19 -20 -19 -19 -19 -19
-12 -13 -14 -15 -15 -15 -15 -15 -15 -15 -15 -13 -13 -13 -12 -12 -12 -11 -11 -11 -10 -9 -8 -7 -5 -5 -7 -7 -7 -7 -7 -6 -7 -8 -10 -11 -14 -15 -16 -15 -13 -13 -17 -18 -18 -17 -17 -19 -20 -21 -22 -22 -22 -22 -22 -20 -20 -20 -20 -19 -19 -20 -20
-13 -13 -14 -15 -15 -16 -16 -15 -15 -13 -9 -11 -7 -9 -11 -11 -11 -11 -11 -8 -6 -8 -8 -9 -10 -11 -11 -12 -12 -11 -11 -10 -10 -11 -12 -14 -16 -17 -19 -19 -18 -17 -17 -18 -19 -21 -21 -22 -23 -23 -23 -23 -23 -22 -22 -21 -21 -20 -21 -21 -21 -21 -21
-9 -12 -14 -15 -15 -14 -15 -14 -12 -4 6 8 6 8 1 -2 4 -1 -6 -5 -3 -4 -7 -8 -8 -9 -10 -10 -11 -11 -12 -11 -11 -12 -12 -15 -14 -17 -18 -19 -20 -20 -20 -21 -22 -23 -23 -24 -24 -24 -24 -23 -24 -24 -23 -22 -19 -22 -22 -22 -23 -23 -22
9 10 4 -5 -10 -8 -4 -4 -3 -1 9 9 8 8 8 6 3 4 4 4 -0 -3 -5 -7 -8 -8 -9 -10 -11 -12 -12 -13 -13 -14 -15 -14 -17 -17 -18 -19 -20 -21 -22 -23 -24 -24 -25 -25 -25 -25 -25 -25 -25 -25 -25 -25 -24 -23 -23 -23 -23 -23 -22
10 11 10 6 4 2 -0 2 3 3 10 8 5 6 5 5 5 7 6 3 1 -5 -6 -7 -8 -9 -9 -10 -12 -13 -13 -14 -15 -16 -17 -17 -19 -20 -21 -21 -22 -22 -23 -24 -25 -26 -26 -26 -26 -26 -26 -26 -26 -25 -26 -26 -25 -25 -25 -24 -24 -23 -22
9 9 9 9 8 8 6 6 4 3 7 7 8 7 2 5 5 1 -0 -1 -5 -8 -9 -10 -10 -11 -11 -12 -13 -13 -14 -15 -16 -17 -18 -19 -20 -20 -21 -22 -22 -21 -24 -26 -27 -27 -27 -27 -27 -27 -27 -26 -26 -26 -27 -27 -26 -26 -26 -25 -25 -24 -23
1 2 -3 -2 2 4 6 6 5 5 3 4 5 4 3 -3 -6 3 4 -2 -6 -6 -8 -10 -10 -12 -13 -13 -15 -15 -16 -17 -18 -20 -20 -21 -21 -22 -22 -23 -23 -25 -27 -27 -27 -26 -26 -26 -26 -27 -28 -28 -28 -28 -28 -28 -27 -27 -27 -27 -26 -26 -25
-16 -12 -10 -12 -11 -10 -9 -9 -8 -7 -7 -7 -7 -7 -2 4 -6 -9 -9 -9 -11 -12 -13 -14 -14 -15 -15 -16 -17 -18 -19 -19 -20 -21 -22 -22 -23 -23 -24 -25 -26 -27 -27 -28 -27 -27 -27 -27 -27 -27 -28 -28 -29 -29 -29 -29 -29 -28 -28 -28 -27 -27 -27
-16 -16 -13 -12 -12 -11 -10 -10 -9 -9 -9 -1 3 3 -1 -7 -8 -11 -13 -14 -15 -16 -18 -18 -18 -18 -18 -18 -19 -20 -21 -21 -21 -21 -22 -23 -23 -25 -25 -26 -27 -28 -28 -27 -28 -28 -27 -26 -27 -28 -28 -28 -29 -28 -29 -30 -30 -29 -29 -28 -28 -27 -27

ECMWFFLT1_sfc_dewp_120.txt.gz
Dewpoint
1 -2 -3 -3 -2 -3 -2 -4 -4 -5 -7 -7 -8 -8 -8 -9 -9 -8 -6 -4 -5 -6 -6 -5 -4 -5 -5 -7 -3 -4 -3 -4 -6 -6 -4 -4 -4 -4 -3 -4 -4 -7 -7 -8 -10 -11 -11 -11 -12 -12 -12 -12 -10 -9 -10 -2 -9 -9 -9 -9 -7 -9 4
1 -2 -3 -3 -3 -3 -3 -3 -4 -5 -6 -5 -5 -6 -5 -4 -3 -3 -2 -1 -3 -4 -5 -4 -0 -3 -4 -5 -1 -0 -2 -2 -3 -2 -4 -4 -3 -4 -3 -6 -4 -6 -6 -7 -9 -10 -11 -11 -11 -12 -12 -12 -12 -11 -7 -8 -9 -10 -11 -10 -10 -9 -10
1 -0 -2 -1 -1 -2 -3 -3 -3 -4 -2 -1 -1 -1 -0 1 2 1 1 1 -2 -3 -3 -3 1 0 -2 -2 -1 -0 -1 -0 -1 -1 -1 -2 -2 -4 -5 -6 -6 -5 -6 -7 -8 -9 -11 -11 -11 -11 -11 -11 -11 -9 -10 -10 -9 -9 -9 -8 -8 -8 -9
1 0 -1 0 -0 -1 -2 -1 -1 -0 0 3 3 4 6 5 5 4 3 3 0 -2 -2 1 1 0 1 0 -0 -0 -1 0 0 0 -1 -2 -2 -2 -5 -6 -6 -6 -5 -6 -7 -9 -9 -10 -11 -11 -10 -10 -9 -10 -10 -9 -8 -6 -5 -6 -5 -7 -8
1 0 0 -0 1 0 -0 1 2 3 4 5 6 7 9 10 9 9 7 5 3 4 2 0 0 -0 1 1 -0 -0 -0 0 -0 -0 -1 -2 -2 -2 -4 -5 -6 -6 -6 -6 -7 -8 -9 -10 -11 -10 -10 -9 -9 -9 -9 -9 -8 -6 -4 -5 -5 -5 -6
1 2 0 1 1 2 3 4 5 6 7 8 9 9 11 11 10 8 8 7 4 3 3 2 1 -0 2 1 0 -0 0 0 -1 -1 -2 -2 -2 -2 -2 -3 -4 -5 -4 -5 -6 -6 -7 -8 -9 -10 -10 -10 -9 -10 -9 -7 -5 -6 -2 -2 -3 -2 -3
3 4 3 4 5 6 7 8 9 10 10 10 10 12 12 11 10 8 8 6 5 4 3 3 2 2 2 2 2 1 0 -0 -2 -2 -2 -2 -2 -2 -3 -3 -3 -3 -4 -4 -5 -5 -6 -6 -6 -7 -8 -8 -9 -9 -9 -9 -8 -6 -4 -3 -3 -4 -3
6 5 5 6 7 8 10 12 12 12 12 13 12 12 12 11 10 9 7 6 5 4 3 3 2 2 3 3 3 2 1 -0 -1 -1 -2 -2 -3 -3 -3 -4 -4 -4 -3 -4 -5 -5 -6 -6 -7 -8 -8 -8 -8 -8 -8 -8 -9 -9 -8 -6 -5 -4 -4
8 8 9 8 10 11 12 13 13 13 13 13 13 12 11 11 10 9 7 6 4 3 3 3 3 3 3 4 6 6 4 4 3 -1 -2 -2 -2 -3 -3 -4 -4 -4 -5 -5 -5 -6 -5 -6 -7 -8 -8 -9 -9 -9 -9 -8 -8 -7 -7 -6 -6 -5 -3
11 12 12 11 13 13 13 13 13 14 15 15 12 12 11 10 10 9 7 5 3 2 2 2 3 3 6 7 7 6 6 6 6 4 1 -2 -2 -2 -3 -4 -4 -5 -5 -5 -6 -6 -6 -7 -7 -8 -8 -8 -9 -9 -9 -9 -9 -9 -9 -8 -7 -6 -5
13 13 13 13 13 13 13 13 13 15 18 19 17 13 11 9 9 8 6 4 2 1 1 2 2 2 5 6 7 5 6 7 7 6 5 4 3 2 -2 -4 -5 -5 -5 -5 -6 -6 -6 -7 -7 -7 -8 -8 -8 -9 -9 -9 -9 -9 -8 -8 -8 -9 -8
13 12 13 13 13 13 13 12 14 17 19 19 18 16 10 9 7 6 4 2 1 1 1 1 1 1 1 1 2 2 3 5 6 6 6 5 5 4 3 4 -1 -4 -5 -5 -6 -6 -6 -7 -7 -7 -6 -6 -6 -7 -8 -8 -8 -7 -8 -8 -8 -8 -8
13 12 13 13 13 12 12 11 15 18 19 19 19 19 13 7 7 4 1 1 0 -0 0 0 -0 -0 -0 -1 3 4 1 -1 1 5 5 5 4 4 5 10 11 9 -1 -4 -4 -5 -6 -6 -6 -7 -6 -5 -6 -4 -6 -6 -6 -6 -6 -6 -7 -7 -7
12 12 12 12 12 11 11 10 13 17 19 19 20 20 17 6 6 3 1 1 0 -0 0 -0 -1 -1 -2 -1 -1 0 -0 -1 -1 -1 -0 1 2 2 4 5 5 5 6 5 -1 -3 -4 -4 -5 -6 -5 -4 -1 -4 -5 -6 -7 -6 -7 -7 -7 -7 -6
11 11 11 11 11 10 10 9 14 17 18 19 19 19 18 9 6 4 3 3 2 2 1 1 0 -0 -1 -0 -0 -0 0 -0 -1 -1 -1 -2 -2 -0 0 1 2 2 3 3 4 3 0 -1 -1 -2 -3 -3 -2 -3 -3 -3 -5 -5 -5 -5 -5 -4 -4
10 10 9 10 10 9 9 8 15 16 18 19 19 18 14 12 10 8 7 7 6 5 4 4 3 2 2 2 2 4 5 5 2 0 -1 -1 -2 -2 -1 -1 2 9 9 4 2 2 3 3 2 7 0 -1 -2 -2 -2 -3 -2 -3 -5 -6 -6 -7 -5
7 8 8 8 8 7 7 6 13 16 17 17 17 15 10 9 9 8 8 8 8 8 7 7 6 5 5 4 4 5 11 12 8 3 1 0 -1 -1 -1 -2 -1 9 13 13 13 13 13 13 13 13 13 13 13 5 0 -4 -5 -5 -5 -6 -7 -7 -6
6 7 7 7 6 6 5 5 7 14 15 15 14 12 8 7 6 5 6 5 5 5 5 5 8 8 6 5 5 9 12 13 8 6 5 2 1 -0 -1 -2 -1 -2 1 11 13 13 13 13 13 13 13 13 13 12 10 -1 -5 -5 -4 -6 -6 -7 -7
5 5 6 5 5 6 5 3 4 10 13 13 12 11 9 8 6 5 5 4 4 3 4 4 6 5 6 6 7 12 13 13 8 6 6 5 3 1 -1 -1 -1 -3 -4 -4 -3 -2 -1 -0 3 3 2 1 3 7 7 6 3 -1 -3 -5 -5 -5 -6
5 4 4 4 4 4 5 2 1 3 10 11 11 12 9 7 7 6 5 4 3 2 2 3 3 5 6 12 13 13 14 13 13 6 5 5 4 1 -1 0 -1 -3 -3 -4 -4 -5 -4 -4 -4 -4 -5 -6 -5 -3 -2 -2 -1 1 1 -2 -3 -4 -4
2 2 2 2 2 2 2 2 1 1 8 9 10 11 10 6 6 5 5 4 3 2 1 1 1 1 3 6 11 12 13 12 13 11 5 5 4 3 3 3 -2 -1 1 -3 -4 -4 -5 -5 -5 -5 -5 -6 -6 -5 -5 -3 -2 -3 -2 -2 -4 -5 -6
1 2 -0 -0 1 1 0 1 2 -1 5 8 9 10 11 6 6 6 5 3 2 1 1 1 0 -0 2 3 9 11 13 13 13 11 5 5 12 13 11 4 2 -1 -1 -2 -3 -4 -5 -5 -5 -6 -6 -5 -5 -4 -3 -5 -5 -4 -4 -3 -4 -5 -7
-0 -1 -3 -3 0 0 -0 -0 0 2 -0 4 8 9 11 11 9 11 7 5 3 2 1 1 -0 0 2 3 10 11 12 12 13 10 6 12 13 12 10 6 3 3 -0 -1 -2 -3 -4 -4 -5 -5 -5 -5 -5 -4 -5 -4 -5 -5 -5 -4 -4 -4 -5
-2 -2 -3 -4 -3 -2 -1 -1 -2 1 1 0 5 8 10 11 11 12 8 6 5 4 2 1 0 1 7 10 11 12 11 11 8 5 11 11 10 6 6 3 2 4 2 -0 -2 -2 -3 -4 -4 -4 -5 -5 -4 -4 -5 -5 -7 -7 -8 -8 -9 -9 -9
-4 -3 -4 -4 -5 -5 -4 -3 -2 -3 -1 1 1 7 8 10 11 9 8 6 6 6 5 4 9 10 10 11 12 12 10 7 5 7 6 5 5 5 0 -2 -4 -3 -2 -0 -1 -2 -2 -3 -3 -4 -4 -5 -5 -7 -11 -13 -15 -15 -15 -16 -16 -17 -13
-6 -5 -5 -5 -5 -5 -5 -5 -5 -4 -5 -1 0 0 4 8 5 5 6 6 5 6 7 9 10 6 5 5 4 3 3 2 2 4 4 3 3 -1 0 -3 -8 -9 -6 -6 -5 -4 -4 -4 -5 -7 -5 -6 -8 -10 -12 -14 -15 -17 -17 -18 -18 -18 -15
-6 -6 -6 -7 -8 -9 -9 -8 -7 -6 -6 -6 -5 -4 -3 -2 -2 -0 1 1 3 5 4 4 4 5 5 5 5 4 4 4 4 2 1 -0 -3 -5 -1 -1 -5 -7 -7 -8 -8 -7 -7 -6 -6 -7 -8 -12 -14 -14 -16 -14 -15 -17 -17 -18 -19 -18 -16
-7 -6 -7 -7 -9 -9 -10 -9 -8 -7 -7 -7 -7 -7 -7 -7 -6 -7 -7 -7 -6 -4 -2 -0 3 3 2 2 1 1 1 0 0 -0 -1 -3 -5 -6 -4 -1 -0 -2 -7 -7 -8 -9 -11 -11 -10 -10 -11 -14 -13 -14 -16 -16 -16 -17 -19 -19 -20 -20 -18
-7 -6 -10 -10 -8 -10 -10 -12 -9 -9 -2 -5 -3 -6 -8 -8 -8 -8 -8 -6 -4 -5 -6 -5 -5 -5 -5 -4 -4 -4 -4 -4 -4 -5 -5 -6 -6 -6 -7 -6 -5 -5 -7 -9 -10 -10 -10 -11 -13 -14 -17 -17 -19 -18 -17 -18 -19 -19 -18 -20 -20 -18 -18
-2 -4 -7 -7 -6 -7 -9 -9 -9 -3 2 4 3 5 0 -3 2 -2 -6 -5 -3 -2 -5 -6 -7 -7 -7 -7 -8 -8 -8 -8 -8 -8 -8 -7 -5 -6 -7 -8 -7 -7 -7 -9 -11 -11 -12 -13 -14 -14 -15 -16 -16 -20 -19 -17 -13 -20 -20 -20 -20 -20 -20
10 10 6 4 0 -2 -1 -1 -2 -1 8 9 9 10 11 9 6 5 2 -1 -3 -3 -3 -5 -6 -6 -7 -8 -8 -8 -8 -8 -9 -8 -9 -8 -8 -7 -7 -7 -8 -8 -9 -10 -11 -12 -12 -13 -13 -14 -14 -15 -16 -17 -18 -21 -19 -20 -21 -20 -21 -21 -21
8 9 9 6 5 5 4 3 3 2 10 10 10 9 8 9 9 9 9 6 5 -1 -3 -3 -4 -5 -6 -6 -7 -7 -7 -8 -8 -8 -9 -9 -9 -9 -8 -8 -9 -10 -11 -11 -12 -12 -13 -13 -13 -14 -15 -16 -16 -17 -19 -20 -22 -23 -23 -23 -24 -22 -21
5 6 6 7 7 8 8 5 4 5 8 8 9 9 5 7 8 4 2 2 -1 -3 -4 -4 -3 -4 -5 -6 -6 -7 -7 -7 -8 -8 -8 -9 -9 -9 -9 -9 -9 -9 -12 -12 -12 -12 -13 -13 -14 -15 -16 -18 -18 -19 -20 -22 -22 -25 -25 -24 -24 -22 -22
-4 -4 -5 -2 0 3 4 5 5 5 4 5 6 6 4 -1 -3 4 2 -1 -4 -5 -6 -6 -6 -6 -5 -5 -5 -6 -6 -7 -7 -7 -8 -8 -9 -9 -9 -9 -10 -11 -12 -13 -12 -12 -14 -15 -16 -17 -18 -20 -23 -24 -25 -24 -23 -25 -25 -26 -25 -25 -25
-12 -9 -8 -8 -6 -6 -7 -6 -6 -5 -5 -5 -5 -4 1 6 -2 -5 -7 -8 -9 -7 -6 -6 -7 -8 -8 -8 -8 -8 -8 -7 -7 -7 -8 -9 -10 -12 -11 -12 -12 -12 -15 -15 -15 -15 -16 -17 -18 -19 -20 -21 -23 -25 -25 -25 -25 -25 -25 -25 -26 -26 -26
-13 -13 -7 -8 -8 -8 -8 -7 -7 -7 -6 1 4 4 1 -3 -6 -8 -10 -11 -11 -11 -11 -10 -10 -9 -8 -8 -8 -9 -10 -12 -12 -11 -11 -12 -12 -12 -12 -14 -15 -15 -16 -17 -17 -17 -18 -17 -20 -21 -22 -23 -23 -25 -25 -25 -25 -25 -25 -25 -26 -26 -26

ECMWFFLT1_sfc_dewp_123.txt.gz
Dewpoint
8 3 2 1 3 2 4 3 2 -1 -2 -3 -3 -4 -5 -6 -7 -7 -8 -6 -7 -7 -6 -3 -2 -2 -0 -1 3 0 1 -2 -2 -5 -3 -4 -3 -3 -2 -3 -3 -6 -7 -9 -11 -11 -11 -11 -11 -11 -11 -11 -9 -8 -9 -0 -6 -6 -9 -9 -9 -9 4
10 6 3 1 1 1 2 3 3 0 -1 -1 -1 -3 -4 -4 -4 -6 -6 -4 -4 -4 0 3 4 3 2 2 5 5 3 2 -1 0 -3 -4 -2 -4 -2 -5 -4 -5 -6 -8 -9 -10 -10 -10 -11 -11 -11 -11 -10 -10 -6 -7 -8 -9 -10 -10 -10 -8 -9
12 9 5 3 2 2 1 3 3 2 2 2 1 -0 -2 -3 -3 -4 -3 -1 -1 -1 1 5 6 6 7 5 6 6 4 3 2 1 0 -0 -1 -4 -5 -5 -5 -5 -6 -7 -7 -8 -9 -10 -11 -11 -11 -11 -11 -8 -9 -10 -9 -8 -8 -8 -9 -9 -9
13 10 6 4 3 3 2 3 3 4 3 4 3 2 3 1 -0 -0 -0 3 5 6 6 6 7 7 8 7 6 5 3 3 3 1 0 0 -1 -2 -6 -6 -6 -5 -5 -6 -7 -8 -8 -9 -10 -10 -10 -10 -9 -9 -8 -8 -7 -7 -7 -7 -6 -6 -7
13 10 8 5 5 4 3 4 4 5 5 4 4 4 5 7 7 7 6 6 7 10 8 8 8 8 8 7 6 5 3 3 3 2 1 0 -1 -2 -4 -6 -6 -6 -5 -5 -6 -7 -8 -7 -8 -9 -9 -8 -9 -8 -7 -7 -7 -6 -3 -5 -5 -6 -7
12 11 9 6 5 5 5 5 5 5 6 5 5 4 7 9 9 7 9 9 8 9 10 10 9 8 8 7 6 4 4 4 3 2 1 1 -0 -1 -1 -2 -4 -4 -3 -4 -5 -5 -7 -8 -8 -9 -9 -9 -8 -9 -8 -6 -5 -6 -4 -3 -3 -2 -3
12 11 10 8 8 7 7 7 7 7 7 7 7 10 11 10 10 9 10 10 10 11 11 11 10 9 9 8 7 5 5 4 3 2 2 1 1 0 -0 -2 -3 -3 -3 -4 -5 -6 -6 -6 -6 -8 -8 -8 -9 -9 -9 -9 -8 -7 -5 -4 -4 -4 -3
12 10 9 8 8 9 8 11 11 11 11 11 11 11 12 11 11 11 11 11 12 12 12 11 11 10 9 8 8 7 6 5 3 2 1 1 1 0 -0 -2 -3 -4 -3 -4 -5 -5 -6 -5 -6 -6 -6 -6 -7 -7 -7 -7 -8 -8 -8 -6 -4 -3 -4
12 10 9 8 9 10 10 12 12 11 11 12 13 13 12 12 12 12 12 12 12 12 12 11 11 10 9 9 9 10 8 7 6 2 1 1 1 0 -1 -2 -4 -4 -4 -5 -5 -5 -5 -5 -5 -6 -7 -7 -7 -7 -8 -8 -8 -7 -7 -6 -6 -5 -3
12 13 12 11 12 13 13 12 12 14 17 16 13 13 13 13 13 13 13 12 12 12 11 11 10 10 11 10 11 10 10 9 8 7 3 1 1 -0 -1 -3 -4 -5 -5 -4 -5 -6 -5 -6 -6 -6 -7 -7 -7 -8 -8 -8 -8 -9 -9 -8 -7 -6 -5
14 13 13 13 13 13 13 14 14 17 18 19 18 15 14 13 13 14 13 12 11 10 10 10 10 8 10 10 11 9 10 9 9 8 7 6 5 3 -1 -3 -4 -5 -5 -5 -6 -5 -6 -6 -7 -6 -6 -7 -7 -7 -8 -8 -8 -8 -8 -8 -9 -10 -8
14 13 14 14 14 14 14 14 17 18 20 20 21 19 15 14 13 13 13 12 11 10 9 8 7 7 7 7 7 7 8 9 9 8 8 7 6 5 4 5 -1 -4 -5 -5 -6 -6 -6 -7 -7 -7 -6 -6 -6 -7 -7 -7 -8 -7 -8 -8 -8 -8 -9
15 14 14 14 15 14 15 15 18 20 21 22 22 23 19 14 14 13 12 11 11 10 8 7 6 5 5 5 9 8 6 6 7 9 8 8 7 6 6 9 11 8 -2 -4 -5 -6 -6 -6 -6 -7 -6 -5 -6 -5 -7 -7 -7 -7 -7 -7 -8 -8 -8
14 14 14 14 14 15 15 15 17 20 21 22 23 23 22 14 13 12 11 11 9 8 7 6 5 4 3 3 4 5 5 4 4 5 6 7 6 4 5 5 6 5 6 3 -3 -4 -6 -5 -5 -6 -5 -4 -1 -5 -6 -7 -7 -7 -7 -7 -7 -7 -7
13 14 13 14 14 14 14 14 17 20 21 22 23 23 22 13 12 11 10 9 8 7 6 5 5 4 3 3 2 3 4 3 3 2 2 2 2 3 2 3 3 3 4 5 5 1 -1 -1 -1 -3 -3 -3 -3 -3 -4 -4 -6 -6 -6 -5 -5 -6 -6
11 12 12 12 12 12 12 11 18 19 21 22 22 22 20 13 11 10 9 7 6 6 5 5 4 3 2 2 1 3 6 5 2 1 -0 -1 -1 -1 -1 0 4 9 10 5 4 4 4 3 2 7 0 -1 -2 -3 -2 -2 -2 -4 -6 -6 -7 -8 -7
10 10 10 10 11 11 11 9 15 19 20 21 21 20 18 13 10 9 8 7 6 5 4 4 4 3 2 2 2 4 10 12 6 1 -1 -2 -3 -3 -3 -3 -1 8 13 14 15 14 14 14 15 14 14 15 14 4 0 -4 -5 -5 -5 -6 -7 -7 -7
8 8 9 9 9 10 9 8 12 17 19 20 20 19 17 13 10 9 8 7 7 6 4 4 5 5 3 3 2 6 11 12 8 5 2 -1 -1 -2 -3 -3 -2 -1 2 12 14 13 13 15 14 15 14 14 12 13 12 -2 -5 -4 -4 -6 -6 -8 -7
7 7 7 7 7 10 8 7 9 15 18 18 19 18 16 13 9 7 8 8 7 7 6 6 6 6 5 4 5 11 13 14 9 7 7 4 1 -0 -1 -1 -0 -1 -1 -1 -0 1 3 4 7 7 6 6 7 9 9 5 1 -1 -3 -5 -6 -6 -6
6 6 5 6 6 6 7 6 6 7 15 17 18 18 15 11 9 8 6 5 6 5 6 6 6 7 9 14 13 14 14 14 15 9 8 7 4 1 0 2 1 0 -1 -1 -2 -2 -1 -1 0 -0 -2 -4 -5 -3 -2 -1 -0 3 0 -3 -4 -5 -5
4 4 4 4 5 4 5 5 5 5 12 15 16 16 15 11 9 8 8 7 6 5 4 4 4 5 7 11 14 15 15 15 15 12 8 7 6 5 5 6 2 1 3 -0 -2 -3 -3 -3 -3 -3 -4 -5 -6 -6 -7 -7 -4 -3 1 0 -2 -3 -4
2 3 2 2 2 2 3 4 5 3 8 11 12 13 13 9 8 8 7 7 6 6 5 4 3 2 4 6 12 13 14 14 14 13 7 7 13 13 13 7 6 3 2 1 -0 -2 -3 -4 -4 -4 -5 -5 -5 -6 -5 -7 -7 -5 -5 -2 -1 -2 -4
1 -0 -1 -1 2 2 2 2 3 5 3 7 10 11 12 12 11 13 9 7 6 5 5 4 3 2 4 5 12 13 13 14 14 11 8 14 14 14 10 8 7 6 3 1 -0 -1 -3 -4 -4 -5 -5 -5 -6 -6 -6 -6 -6 -7 -6 -5 -3 -2 -2
-2 -2 -2 -2 -1 -0 1 1 1 3 4 4 7 9 10 11 12 12 9 8 7 7 5 4 3 2 10 12 13 13 13 13 9 7 13 14 11 8 9 6 5 6 4 2 0 -1 -2 -3 -4 -4 -5 -5 -5 -5 -6 -6 -6 -6 -7 -7 -6 -5 -4
-4 -3 -3 -3 -3 -3 -2 -2 -1 -1 0 2 3 7 8 9 10 8 7 6 6 8 8 7 11 12 12 12 12 12 12 8 6 8 10 9 8 8 3 -1 -1 0 1 2 0 -1 -2 -2 -3 -3 -4 -4 -4 -5 -8 -11 -12 -10 -9 -9 -11 -12 -10
-7 -7 -7 -6 -7 -7 -6 -6 -5 -4 -4 -1 1 1 5 7 3 3 4 5 5 6 7 9 10 9 9 8 7 6 5 5 5 6 6 6 6 2 1 -2 -5 -6 -2 -1 0 -1 -1 -2 -2 -3 -4 -5 -5 -5 -7 -9 -10 -12 -13 -14 -14 -15 -14
-9 -9 -9 -9 -9 -10 -10 -10 -8 -6 -6 -5 -5 -4 -3 -1 -1 1 1 0 -1 -0 -1 1 4 5 7 7 7 7 7 7 6 4 4 3 2 -2 -1 -1 -2 -3 -3 -3 -3 -2 -1 -1 -1 -4 -6 -6 -5 -6 -7 -8 -8 -10 -9 -13 -16 -14 -12
-10 -9 -9 -10 -11 -11 -12 -10 -10 -8 -8 -7 -7 -7 -6 -6 -5 -6 -6 -6 -6 -7 -6 -6 -2 -1 2 3 4 4 4 4 4 4 2 0 -4 -3 -3 -0 2 1 -3 -3 -4 -5 -6 -7 -5 -5 -5 -6 -7 -6 -8 -10 -9 -10 -11 -13 -15 -18 -14
-7 -6 -10 -8 -8 -8 -8 -12 -9 -9 -3 -6 -3 -6 -8 -8 -8 -8 -8 -5 -4 -6 -8 -10 -9 -8 -7 -6 -4 -2 -1 -1 -0 -1 -1 -4 -5 -6 -7 -6 -3 -2 -3 -5 -8 -8 -8 -7 -7 -6 -6 -7 -9 -10 -11 -13 -11 -14 -11 -17 -16 -13 -12
1 1 -1 -2 -2 -3 -4 -4 -3 1 9 10 8 8 3 -0 4 0 -5 -4 -3 -3 -7 -9 -10 -9 -9 -8 -8 -8 -7 -6 -5 -5 -6 -7 -3 -5 -8 -8 -7 -6 -5 -6 -9 -9 -10 -10 -11 -11 -12 -13 -12 -16 -18 -16 -10 -16 -16 -16 -17 -16 -16
7 8 4 3 2 4 4 3 4 5 10 10 10 10 10 9 6 6 5 4 -1 -4 -5 -7 -7 -7 -8 -8 -9 -9 -9 -8 -8 -8 -7 -7 -7 -7 -6 -6 -7 -7 -7 -7 -8 -9 -9 -9 -11 -11 -12 -13 -13 -13 -17 -21 -18 -18 -18 -16 -16 -17 -17
7 8 7 3 1 1 -0 2 2 2 8 9 10 10 10 10 10 10 8 3 3 -0 -2 -4 -5 -5 -6 -7 -8 -8 -8 -8 -9 -9 -9 -9 -9 -9 -8 -8 -8 -8 -8 -8 -8 -9 -10 -12 -12 -12 -12 -13 -13 -14 -16 -17 -18 -18 -18 -19 -21 -19 -18
4 4 4 5 5 6 6 2 0 2 8 8 8 9 3 6 5 -0 -1 0 -2 -5 -5 -3 -3 -4 -4 -5 -6 -7 -8 -8 -9 -9 -9 -9 -9 -9 -9 -8 -8 -7 -8 -9 -9 -9 -10 -11 -12 -13 -14 -15 -15 -15 -16 -17 -17 -18 -18 -19 -20 -20 -21
-5 -6 -6 -4 1 2 3 4 4 4 3 4 6 5 4 -1 -1 5 3 -0 -3 -5 -7 -7 -8 -7 -6 -5 -4 -5 -6 -7 -7 -8 -8 -8 -8 -9 -9 -9 -9 -9 -9 -10 -9 -9 -10 -11 -12 -14 -14 -16 -16 -16 -16 -17 -18 -19 -20 -21 -21 -21 -23
-13 -10 -9 -9 -8 -7 -7 -7 -7 -7 -6 -6 -5 -2 2 3 -8 -9 -9 -10 -14 -12 -12 -12 -11 -10 -9 -8 -7 -6 -6 -6 -6 -6 -7 -7 -8 -8 -8 -9 -10 -10 -10 -10 -10 -10 -11 -12 -13 -14 -14 -15 -16 -17 -18 -18 -19 -21 -21 -21 -23 -24 -24
-14 -14 -10 -9 -9 -9 -8 -8 -8 -8 -8 2 5 2 -4 -13 -15 -16 -16 -15 -15 -14 -12 -12 -11 -10 -10 -10 -9 -8 -8 -7 -7 -7 -6 -6 -6 -7 -8 -9 -10 -10 -10 -11 -11 -12 -12 -12 -14 -14 -15 -16 -16 -18 -18 -19 -20 -21 -22 -22 -23 -24 -24

ECMWFFLT1_sfc_dewp_126.txt.gz
Dewpoint
15 13 10 7 7 6 7 7 8 7 7 7 6 5 4 3 1 -1 -2 -2 -2 -1 -1 -0 1 1 0 -2 2 1 1 0 -3 -3 -1 2 1 2 7 4 2 -2 -3 -9 -13 -12 -12 -12 -12 -12 -11 -11 -10 -8 -9 1 -4 -4 -5 -6 -6 -7 5
16 16 13 9 7 7 6 7 7 7 7 7 7 5 5 4 3 1 -0 -1 -1 -0 3 5 6 3 1 1 5 5 4 2 3 4 2 1 4 5 5 2 1 -1 -3 -5 -11 -12 -11 -11 -11 -13 -11 -11 -11 -10 -6 -7 -8 -9 -8 -9 -9 -9 -10
17 17 15 12 9 7 7 7 7 8 8 8 8 6 5 4 4 3 3 2 2 1 1 6 6 6 6 5 6 7 6 6 6 6 6 5 5 6 3 1 -1 -0 -2 -3 -6 -10 -11 -11 -11 -11 -11 -10 -10 -8 -9 -8 -7 -7 -8 -7 -9 -9 -10
17 17 16 14 11 9 7 7 8 8 8 9 8 8 8 6 6 5 5 6 8 3 7 6 6 6 7 7 7 7 5 6 7 7 7 7 6 5 2 1 -1 -1 -1 -3 -6 -7 -9 -9 -10 -10 -10 -10 -8 -9 -8 -8 -6 -7 -6 -7 -6 -8 -8
18 17 17 15 13 11 8 8 8 8 9 9 8 8 8 11 11 10 9 9 9 10 9 7 7 6 8 8 7 7 7 7 8 8 7 7 6 5 6 3 1 -1 -2 -2 -5 -7 -7 -7 -8 -9 -9 -8 -9 -8 -8 -7 -7 -6 -4 -4 -5 -6 -6
18 18 17 16 15 13 10 9 8 8 9 9 9 8 10 12 12 11 11 11 9 9 10 9 9 8 9 9 8 7 8 8 8 8 7 7 7 6 6 4 2 -1 0 -1 -4 -5 -7 -7 -7 -8 -8 -8 -8 -9 -8 -6 -5 -6 -3 -3 -3 -2 -4
18 18 18 17 16 15 13 12 11 10 9 10 10 13 13 12 12 11 11 11 10 11 11 11 10 10 9 10 9 8 8 9 8 8 8 8 7 7 5 4 3 2 0 -1 -3 -4 -6 -7 -6 -7 -8 -8 -8 -8 -8 -9 -8 -6 -5 -4 -3 -4 -3
19 18 17 17 17 16 14 13 15 13 14 14 14 14 14 13 13 13 12 12 12 12 12 11 11 11 11 11 10 10 9 9 8 8 7 8 7 6 5 3 2 1 -0 -2 -3 -5 -5 -5 -7 -7 -7 -7 -8 -9 -8 -8 -9 -9 -8 -6 -5 -4 -4
19 18 17 16 16 17 16 16 16 15 14 15 15 15 15 14 14 14 13 13 12 12 12 12 12 12 12 11 13 13 12 11 11 8 7 7 7 6 5 3 2 0 -1 -3 -3 -5 -6 -5 -5 -6 -6 -6 -7 -7 -8 -8 -7 -7 -6 -6 -6 -5 -2
15 17 17 16 16 15 15 16 16 17 18 19 16 16 15 15 15 15 14 13 13 12 13 12 12 12 15 14 14 14 13 13 12 11 9 7 7 6 5 3 2 -1 -2 -2 -4 -5 -5 -6 -6 -6 -6 -7 -7 -7 -7 -7 -7 -8 -8 -8 -7 -6 -5
15 13 14 13 14 14 15 15 15 18 19 20 20 17 16 15 15 15 14 14 13 12 12 12 13 12 14 14 14 13 14 13 13 12 12 10 9 8 5 3 1 -0 -2 -3 -4 -4 -5 -6 -6 -6 -6 -6 -7 -7 -7 -7 -7 -7 -7 -8 -9 -10 -11
15 15 14 14 14 15 15 15 18 18 19 20 21 20 16 15 15 15 14 14 13 12 12 12 12 12 12 12 12 12 12 13 13 13 12 12 11 10 9 9 4 0 -2 -3 -4 -5 -5 -6 -6 -6 -5 -5 -5 -6 -6 -6 -7 -7 -7 -8 -8 -8 -9
16 15 15 15 15 15 15 15 18 19 20 21 22 22 20 15 16 14 14 14 14 13 13 12 12 11 11 12 13 13 12 11 12 13 12 12 12 11 10 12 13 10 1 -1 -3 -4 -5 -5 -5 -5 -5 -4 -5 -4 -6 -6 -6 -6 -6 -7 -7 -8 -8
16 16 15 15 15 15 15 15 18 19 21 22 23 23 23 17 16 15 14 14 14 13 13 12 12 11 10 10 11 12 11 11 11 11 11 11 10 9 9 9 10 11 8 3 -2 -3 -5 -3 -3 -4 -4 -3 0 -5 -6 -6 -7 -7 -7 -7 -7 -7 -6
13 14 14 14 14 14 14 13 18 20 21 22 23 23 23 22 17 15 14 14 13 13 13 13 12 11 10 10 9 10 11 10 9 9 9 9 8 7 6 5 5 6 7 6 0 -2 -2 -2 -1 -2 -3 -4 -2 -3 -4 -5 -6 -6 -6 -6 -6 -6 -8
11 11 11 12 12 12 12 12 18 20 21 22 22 22 21 22 19 16 15 14 13 13 13 12 12 10 10 9 8 10 12 11 9 8 7 6 6 6 5 4 6 10 10 7 5 3 1 -0 -1 5 -1 -2 -3 -3 -2 -2 -3 -5 -8 -8 -8 -8 -7
9 10 9 10 10 10 10 10 14 18 19 20 21 21 20 19 15 15 14 13 12 12 11 11 11 10 9 9 8 9 15 16 11 7 6 5 4 3 3 2 2 11 15 15 15 14 14 13 13 14 15 14 13 3 -1 -4 -5 -6 -6 -7 -8 -8 -7
8 8 9 9 8 7 8 8 11 16 18 19 19 19 19 14 13 13 13 12 10 9 9 9 11 10 9 8 7 11 16 17 13 7 5 3 2 -0 -1 -1 -1 -0 5 15 16 15 14 15 14 15 15 15 15 16 12 -3 -5 -5 -5 -6 -6 -7 -7
6 6 5 5 5 11 8 6 8 14 16 17 18 18 17 12 12 11 11 10 9 8 8 7 10 11 9 8 8 15 17 18 13 9 6 3 2 -0 -2 -1 -1 -1 -2 -1 0 3 5 6 8 8 8 9 11 12 12 6 -1 -2 -3 -5 -5 -5 -6
2 1 1 0 0 1 1 3 4 8 14 16 16 17 16 13 10 9 9 9 9 8 8 7 6 8 10 15 15 16 17 18 18 12 9 6 3 1 -1 0 0 -0 -1 -1 -2 -2 -1 -1 0 1 2 2 2 4 4 4 5 2 -0 -2 -3 -4 -5
-2 -2 -1 -1 0 -0 0 1 3 5 12 14 15 16 15 13 12 10 9 8 8 8 8 7 7 6 8 12 16 17 17 17 16 15 11 9 6 5 5 6 1 1 3 0 -1 -1 -2 -2 -2 -1 -1 -1 -3 -3 -4 -2 -0 3 3 1 -1 -3 -4
-3 -4 -2 -1 -1 -1 1 2 5 3 9 11 11 13 13 10 9 10 8 8 7 7 7 7 7 6 8 9 14 17 16 16 15 16 10 10 15 15 15 9 6 3 2 1 -0 -1 -2 -2 -2 -2 -2 -2 -2 -3 -4 -5 -5 -3 -0 2 1 -1 -2
-5 -5 -3 -2 -0 -0 -0 -0 1 4 4 7 9 10 11 11 10 12 9 9 8 7 7 7 7 7 9 10 16 15 14 15 15 12 11 16 16 14 11 11 8 6 3 2 1 0 -1 -2 -2 -3 -3 -3 -3 -2 -3 -4 -5 -6 -5 -3 -2 -1 -1
-6 -7 -5 -4 -3 -2 -1 -1 -2 1 3 3 7 8 9 10 11 10 8 7 7 8 9 8 7 7 12 15 15 14 13 13 10 8 12 14 13 11 11 8 8 8 6 3 2 1 0 -1 -1 -2 -3 -3 -3 -3 -3 -4 -4 -6 -7 -6 -6 -5 -4
-8 -8 -8 -8 -6 -5 -5 -4 -5 -4 -1 1 2 6 7 7 9 6 5 4 5 6 6 8 11 13 14 14 14 12 13 9 7 10 9 8 9 9 7 6 6 6 7 5 3 2 1 0 -0 -1 -2 -2 -2 -3 -5 -10 -10 -9 -9 -9 -8 -9 -9
-10 -10 -11 -11 -10 -10 -8 -8 -9 -8 -8 -3 -2 -1 4 6 2 1 1 1 1 2 2 3 7 4 4 5 7 8 8 6 5 7 7 8 8 7 6 5 3 3 3 3 3 2 1 1 1 -0 -1 -3 -5 -6 -6 -7 -8 -11 -12 -13 -13 -14 -11
-11 -11 -12 -12 -9 -9 -9 -9 -10 -9 -10 -8 -9 -8 -5 -4 -4 -1 -1 -1 -2 0 -1 -2 -1 -2 -1 -1 2 4 6 8 9 6 5 6 6 5 4 3 2 1 1 0 1 0 1 1 1 -1 -4 -5 -5 -6 -6 -7 -7 -9 -9 -11 -13 -11 -11
-11 -9 -8 -7 -5 -5 -6 -7 -9 -9 -8 -8 -8 -8 -7 -7 -7 -7 -7 -7 -7 -7 -6 -6 -2 -3 -5 -6 -6 -5 -3 -0 3 5 5 4 3 2 1 2 4 3 0 0 -0 -1 -2 -3 -1 -1 -2 -3 -5 -6 -6 -7 -7 -8 -8 -9 -13 -17 -13
-6 -4 -3 -2 -2 -2 -2 -3 -4 -4 1 -3 -0 -3 -3 -5 -7 -7 -7 -5 -3 -5 -7 -11 -11 -11 -10 -13 -10 -9 -8 -6 -3 -1 2 2 1 -1 -3 -4 -2 -0 -0 -1 -3 -4 -5 -5 -4 -2 -2 -3 -5 -6 -5 -7 -7 -7 -6 -10 -11 -10 -10
3 4 3 2 1 0 -1 -1 0 3 8 8 8 9 7 6 7 5 2 1 -0 -0 -4 -6 -8 -8 -9 -10 -11 -11 -10 -9 -7 -6 -4 -3 -1 -5 -7 -7 -5 -3 -1 -3 -4 -4 -6 -6 -6 -5 -5 -5 -5 -8 -12 -11 -6 -9 -8 -9 -12 -12 -11
7 7 2 -0 -2 -1 0 0 0 0 7 8 9 9 9 8 5 5 5 5 1 -0 -1 -4 -6 -6 -9 -9 -10 -10 -10 -9 -9 -8 -7 -6 -5 -4 -5 -5 -6 -6 -5 -5 -6 -6 -6 -6 -7 -7 -8 -8 -8 -8 -11 -17 -14 -12 -11 -9 -10 -12 -12
6 6 5 1 -1 -1 -1 -1 -2 -2 6 7 7 8 7 7 8 8 5 -0 1 -2 -3 -3 -5 -6 -6 -8 -10 -10 -10 -10 -10 -9 -9 -8 -8 -7 -6 -6 -6 -6 -6 -6 -7 -7 -8 -8 -9 -8 -9 -9 -9 -10 -12 -15 -15 -14 -13 -13 -13 -12 -12
3 4 4 4 5 5 4 -1 -3 -1 5 5 6 7 -0 4 3 -2 -3 -6 -11 -13 -12 -11 -11 -11 -10 -8 -7 -6 -7 -8 -10 -10 -10 -9 -9 -9 -8 -8 -7 -6 -6 -7 -7 -7 -7 -8 -9 -10 -10 -12 -11 -12 -12 -14 -15 -15 -15 -14 -15 -15 -16
-6 -6 -8 -5 -2 -0 0 0 2 1 1 3 4 4 3 -5 -6 1 -6 -11 -15 -16 -18 -17 -16 -13 -12 -11 -10 -10 -9 -7 -6 -7 -7 -8 -9 -9 -9 -8 -8 -8 -7 -7 -7 -7 -8 -9 -9 -10 -11 -13 -14 -13 -13 -14 -15 -16 -16 -17 -16 -16 -18
-15 -12 -11 -11 -11 -11 -11 -11 -10 -10 -9 -7 -5 -6 -4 -4 -17 -18 -18 -17 -18 -17 -19 -18 -17 -16 -14 -13 -12 -11 -10 -10 -9 -9 -7 -6 -7 -7 -8 -8 -8 -9 -9 -8 -8 -8 -8 -9 -9 -10 -11 -12 -13 -14 -14 -14 -15 -17 -17 -17 -18 -19 -20
-18 -17 -12 -12 -12 -12 -12 -12 -12 -11 -9 -1 -1 -7 -13 -19 -21 -21 -20 -19 -18 -17 -17 -16 -15 -15 -15 -13 -13 -13 -13 -14 -14 -13 -13 -12 -10 -8 -7 -7 -8 -8 -9 -9 -9 -9 -9 -9 -10 -10 -12 -12 -13 -14 -14 -14 -15 -16 -17 -17 -17 -18 -18

ECMWFFLT1_sfc_dewp_129.txt.gz
Dewpoint
16 16 16 13 11 10 10 10 10 10 10 10 10 10 9 9 8 7 7 6 5 5 6 6 6 6 6 4 5 3 3 2 -0 -1 -1 1 2 2 4 3 5 3 3 -5 -13 -11 -11 -12 -11 -11 -10 -8 -6 -5 2 5 -3 2 1 -2 -3 -5 6
17 17 16 16 14 11 10 10 9 9 10 10 10 10 9 9 9 8 7 7 6 6 5 6 10 8 7 6 8 8 6 4 1 3 1 -0 3 1 4 1 3 4 4 4 -11 -12 -11 -12 -12 -13 -11 -10 -9 -7 -2 -1 -4 -5 -6 -7 -7 -7 -8
18 18 17 17 16 15 12 11 10 10 10 11 11 10 10 9 9 9 9 8 8 7 6 8 10 10 10 9 9 10 8 7 6 5 4 4 3 4 1 3 1 4 4 5 1 -9 -11 -12 -12 -13 -11 -11 -10 -8 -6 -8 -7 -8 -8 -7 -9 -8 -9
19 19 18 18 18 17 15 13 12 11 11 12 11 11 12 11 10 10 10 11 9 9 9 10 9 10 10 10 10 10 7 7 7 6 5 5 5 5 4 7 2 3 5 6 5 -5 -8 -10 -11 -11 -11 -10 -8 -7 -7 -8 -6 -7 -6 -8 -6 -8 -9
20 19 19 19 19 18 17 16 14 13 12 12 11 12 12 13 14 13 13 13 12 13 12 11 11 10 11 11 10 10 8 8 8 8 6 6 5 5 6 8 9 9 7 6 5 2 -6 -8 -10 -10 -9 -8 -8 -8 -7 -7 -6 -6 -4 -4 -5 -7 -7
21 21 20 20 19 19 19 18 16 14 13 13 12 12 14 15 15 14 15 15 14 13 14 13 12 11 12 12 11 9 9 10 9 9 8 8 7 7 9 8 10 9 7 6 5 4 -3 -6 -7 -6 -8 -8 -8 -8 -8 -5 -4 -7 -3 -2 -3 -3 -5
20 21 21 21 21 20 20 20 18 16 14 14 13 15 16 15 15 15 15 15 15 15 15 15 14 13 13 12 12 11 11 11 10 9 9 9 9 9 9 9 8 7 6 6 5 4 -1 -3 -3 -6 -6 -7 -7 -8 -8 -9 -7 -5 -3 -2 -3 -3 -3
18 19 19 20 20 20 20 20 19 18 17 16 16 17 16 16 16 16 16 15 16 16 16 15 15 15 14 14 13 12 12 12 10 10 10 10 10 10 10 9 8 8 7 6 5 3 0 -3 -3 -5 -7 -6 -6 -7 -7 -7 -8 -8 -7 -5 -4 -3 -3
15 15 16 17 19 19 20 20 19 18 17 17 18 18 17 17 17 16 16 16 16 16 16 16 16 16 15 15 15 15 14 13 14 11 9 10 11 10 10 9 8 7 6 5 4 3 1 -2 -4 -5 -7 -7 -6 -7 -8 -7 -7 -7 -6 -6 -6 -5 -2
16 16 15 15 16 16 16 17 17 20 22 22 19 18 18 18 18 17 17 16 16 16 16 16 16 16 16 16 16 15 15 16 17 16 12 10 11 10 10 9 8 7 6 5 3 2 1 -2 -3 -5 -6 -7 -8 -8 -7 -6 -7 -8 -8 -7 -7 -8 -4
17 16 16 16 16 16 16 16 17 20 21 22 23 21 19 18 18 18 18 17 17 16 15 15 16 15 16 16 16 16 16 18 17 16 16 15 14 13 10 9 8 7 6 5 3 3 1 -1 -3 -4 -6 -7 -7 -7 -7 -7 -7 -7 -7 -8 -9 -9 -11
16 16 16 16 16 16 16 16 19 21 22 22 23 23 21 19 18 18 17 17 17 16 16 15 15 14 14 14 15 14 14 16 17 16 16 16 15 14 14 13 10 7 6 5 3 2 1 0 -1 -3 -3 -4 -4 -6 -5 -6 -6 -5 -6 -7 -7 -8 -8
14 14 15 15 15 15 16 15 19 21 22 23 23 24 23 20 19 17 17 17 16 16 16 15 14 14 13 13 16 15 13 13 14 16 16 16 15 15 14 16 17 14 9 6 4 3 2 0 -1 -3 -2 -2 -3 -2 -4 -4 -5 -5 -6 -6 -7 -7 -7
12 12 13 13 13 14 14 14 17 20 22 22 22 23 23 23 20 18 17 16 16 16 15 15 14 13 12 13 13 13 13 13 13 13 13 13 13 12 13 14 15 15 13 10 6 4 2 2 0 -2 -1 0 2 -2 -4 -4 -6 -5 -6 -6 -6 -6 -6
10 11 12 11 12 12 12 12 18 20 20 21 21 22 22 22 22 19 17 16 16 15 15 15 14 13 13 13 12 13 13 12 12 12 12 12 11 11 11 11 12 13 13 11 7 5 4 4 3 1 1 1 2 -0 -1 -3 -4 -4 -5 -6 -9 -10 -10
9 9 9 10 10 10 10 11 17 18 19 19 20 20 20 20 20 20 18 17 16 15 15 15 14 14 13 13 12 13 15 14 12 12 11 11 11 11 11 11 12 16 16 13 10 7 5 4 2 7 1 0 0 0 -1 -2 -3 -9 -11 -12 -10 -8 -10
8 9 8 8 8 8 9 9 14 17 18 18 19 19 18 18 18 17 16 16 16 16 15 15 14 14 13 13 12 13 17 19 14 11 11 10 10 10 10 10 11 16 19 19 19 17 15 14 13 13 13 12 12 3 1 -4 -5 -7 -7 -8 -9 -9 -9
7 7 7 7 6 7 8 7 9 15 17 18 18 17 16 16 14 14 14 14 14 14 14 14 15 15 13 12 12 14 18 19 16 11 10 10 9 9 8 8 8 7 11 18 19 19 19 18 17 15 15 16 15 14 9 -5 -6 -6 -6 -8 -8 -9 -8
4 4 5 4 4 7 5 3 5 11 15 15 16 15 14 14 12 10 10 10 10 10 10 10 12 15 14 12 12 17 19 20 17 13 10 9 9 7 7 7 4 4 5 6 9 11 13 13 14 13 12 12 13 13 11 -0 -3 -3 -5 -7 -7 -7 -7
1 1 1 1 1 0 -1 0 1 5 12 13 14 14 11 10 10 10 9 7 6 6 7 7 8 10 14 17 17 17 19 20 20 15 12 10 8 7 6 6 4 4 4 4 4 5 6 7 8 6 5 4 7 10 10 7 1 0 -2 -4 -5 -5 -5
-3 -3 -2 -2 -1 -2 -2 -1 0 1 9 10 12 13 11 8 8 9 9 8 7 5 4 4 4 6 10 13 16 17 18 19 19 18 14 11 8 7 7 8 4 4 6 3 2 2 2 2 2 2 2 1 -1 0 3 5 6 4 3 0 -2 -3 -4
-5 -5 -4 -4 -3 -4 -3 -2 1 -1 5 7 8 10 11 6 6 8 8 8 8 8 8 7 6 5 8 10 14 17 18 18 18 18 15 13 17 16 16 10 5 4 3 3 1 0 -1 -1 -2 -2 -2 -2 -2 -2 -1 0 2 4 5 4 3 1 -1
-6 -7 -6 -5 -4 -4 -4 -4 -4 -0 -0 4 8 8 8 9 8 10 8 7 6 7 8 9 9 8 10 10 15 15 16 17 17 15 13 17 18 18 16 13 9 5 3 2 1 0 -1 -2 -2 -2 -3 -2 -2 -2 -1 -2 -1 -1 2 3 3 3 3
-7 -8 -7 -7 -6 -5 -5 -6 -6 -3 -1 -1 5 10 11 11 10 9 5 4 2 3 4 5 6 8 12 13 14 15 16 16 14 12 16 16 14 14 14 13 12 9 6 3 2 1 -0 -1 -1 -1 -2 -2 -1 -1 -1 -1 -2 -3 -4 -2 1 1 1
-9 -10 -9 -9 -8 -7 -6 -5 -7 -7 -5 -2 -1 7 9 9 9 6 4 1 -1 1 -1 2 5 9 11 12 13 13 11 8 8 10 12 11 12 12 10 10 10 10 9 6 3 2 1 1 0 -0 -0 0 0 -0 -2 -7 -7 -5 -5 -4 -4 -4 -5
-9 -10 -11 -10 -9 -8 -7 -7 -7 -7 -8 -4 -3 -2 4 8 4 2 2 2 1 2 2 3 6 2 2 2 1 1 1 3 4 6 8 9 9 8 8 8 7 7 6 6 5 4 3 2 2 1 1 0 -0 -1 -3 -4 -5 -6 -8 -8 -8 -10 -8
-10 -9 -8 -7 -6 -6 -7 -8 -8 -8 -9 -6 -7 -6 -5 -4 -4 -1 -1 -2 -4 -2 -4 -3 -2 -1 -1 -0 0 1 1 1 1 1 1 2 5 5 5 5 5 5 5 4 5 4 4 3 3 2 -1 -3 -3 -3 -3 -4 -4 -6 -6 -8 -9 -8 -9
-7 -5 -3 -2 -3 -4 -7 -7 -10 -8 -6 -3 -1 -1 -1 -1 -3 -3 -5 -6 -6 -6 -6 -7 -2 -5 -8 -10 -10 -10 -12 -11 -9 -5 -4 -3 1 3 2 4 6 6 3 4 3 2 0 -1 1 0 -0 -2 -3 -3 -4 -5 -6 -6 -7 -8 -10 -12 -10
0 2 0 -2 -4 -5 -6 -5 -5 -4 0 1 3 2 2 2 2 1 -0 0 2 1 -3 -8 -12 -13 -12 -14 -12 -12 -12 -12 -13 -10 -8 -8 -6 -1 -0 -2 -1 2 2 2 1 0 -1 -2 -1 -1 -1 -2 -3 -3 -4 -5 -6 -6 -7 -10 -9 -9 -8
2 2 -1 -3 -6 -5 -5 -4 -4 -1 6 7 7 8 5 4 6 3 -1 -2 -1 -1 -3 -4 -7 -9 -11 -12 -15 -15 -15 -13 -13 -12 -10 -10 -5 -7 -7 -4 -3 -1 0 -2 -2 -1 -2 -3 -2 -2 -1 -2 -2 -3 -4 -4 -3 -6 -5 -7 -9 -10 -9
6 6 -0 -3 -5 -3 -2 -3 -4 -4 5 7 7 8 7 5 0 2 -2 -6 -8 -11 -12 -12 -12 -11 -11 -11 -13 -13 -13 -13 -13 -11 -11 -9 -8 -9 -8 -7 -8 -6 -5 -3 -3 -4 -3 -3 -3 -3 -3 -3 -3 -4 -5 -6 -6 -5 -6 -6 -7 -9 -10
5 5 4 -1 -3 -3 -4 -5 -6 -5 5 6 6 5 4 4 4 5 -1 -10 -11 -17 -18 -17 -17 -16 -15 -13 -13 -12 -12 -13 -14 -13 -13 -11 -10 -8 -8 -8 -7 -8 -8 -6 -4 -3 -4 -3 -4 -4 -5 -5 -5 -5 -5 -7 -9 -8 -7 -7 -7 -8 -10
2 2 2 2 2 3 2 -4 -6 -4 3 4 3 3 -8 -2 -1 -9 -10 -13 -18 -24 -21 -22 -20 -20 -18 -16 -16 -14 -13 -12 -13 -12 -12 -13 -12 -11 -10 -9 -8 -6 -7 -7 -7 -5 -4 -4 -5 -6 -6 -7 -7 -7 -7 -8 -10 -10 -9 -10 -10 -11 -13
-8 -10 -11 -9 -7 -4 -3 -2 -1 -2 -2 1 1 0 -4 -11 -13 -5 -11 -14 -20 -21 -23 -23 -22 -20 -18 -17 -15 -14 -13 -14 -14 -14 -14 -14 -13 -12 -10 -9 -9 -10 -8 -7 -7 -6 -6 -6 -6 -7 -8 -8 -9 -8 -8 -8 -10 -11 -12 -13 -12 -12 -14
-18 -15 -13 -15 -15 -14 -13 -14 -14 -14 -12 -11 -11 -12 -10 -7 -23 -24 -23 -22 -21 -20 -20 -20 -19 -19 -19 -18 -18 -17 -17 -16 -16 -15 -15 -15 -15 -15 -14 -14 -12 -9 -8 -8 -8 -7 -7 -7 -7 -7 -8 -8 -10 -11 -11 -10 -11 -13 -13 -13 -14 -14 -15
-23 -22 -15 -16 -16 -16 -15 -16 -16 -16 -13 -5 -7 -12 -18 -26 -27 -27 -26 -25 -24 -24 -21 -22 -22 -21 -21 -20 -20 -19 -19 -18 -17 -17 -17 -17 -16 -16 -16 -15 -14 -13 -12 -9 -8 -8 -8 -7 -7 -7 -8 -8 -9 -10 -11 -11 -12 -13 -15 -14 -14 -15 -15

ECMWFFLT1_sfc_dewp_132.txt.gz
Dewpoint
18 18 18 17 16 14 14 13 13 13 13 13 13 13 12 12 12 11 11 11 11 10 10 10 10 10 10 9 10 8 8 6 4 3 3 3 4 3 5 6 6 5 6 -2 -12 -10 -12 -11 -10 -10 -9 -8 -6 -3 6 9 -2 -0 3 4 3 6 14
18 18 18 18 17 16 15 14 13 13 12 13 13 12 12 12 13 12 12 12 11 12 11 11 13 12 11 10 12 12 10 9 7 7 4 3 5 3 5 3 5 6 5 6 -8 -11 -11 -12 -11 -12 -9 -9 -7 -6 3 4 -2 -1 1 0 -0 -1 3
19 19 19 18 18 17 17 16 14 13 13 13 13 13 13 13 12 13 13 13 12 12 12 13 14 14 14 13 13 13 12 11 10 8 7 7 6 5 2 3 3 5 6 7 2 -7 -10 -11 -12 -13 -11 -9 -8 -6 2 4 -0 -0 -1 -2 -4 -4 -7
20 20 19 19 19 19 18 18 16 15 14 14 14 14 14 14 13 13 13 14 14 13 13 15 14 14 15 14 13 13 11 11 11 9 8 8 7 7 3 2 3 4 6 6 6 -3 -4 -9 -11 -11 -11 -9 -7 -5 -0 3 3 0 -1 -4 -3 -7 -8
19 20 21 21 20 20 19 19 19 18 16 15 14 14 15 15 17 16 16 16 16 17 16 15 15 14 15 14 14 13 12 12 12 11 10 8 7 6 7 6 6 7 7 7 7 8 2 -3 -7 -8 -8 -6 -8 -7 -4 -1 0 -1 -0 -2 -3 -7 -7
16 17 17 18 19 20 21 21 21 20 19 17 16 15 15 18 18 17 18 17 17 16 17 17 16 15 15 15 14 13 13 13 13 12 11 10 9 8 8 8 8 8 8 8 8 9 4 0 -4 -6 -8 -7 -6 -6 -7 -5 -3 -5 0 -1 -2 -2 -5
16 16 16 16 17 18 19 20 21 21 21 19 18 18 18 17 17 17 17 18 17 17 17 17 17 16 16 15 15 14 14 14 13 13 12 12 11 10 9 9 9 9 9 9 9 10 8 4 0 -4 -6 -7 -6 -7 -7 -7 -5 -3 -1 -0 -2 -2 -1
16 16 16 16 17 17 18 18 19 19 21 21 20 20 20 19 18 18 18 18 18 18 18 18 18 17 17 17 16 16 15 15 13 13 13 13 12 11 11 10 9 9 9 9 9 8 8 5 1 -2 -5 -6 -6 -7 -5 -6 -6 -6 -6 -3 -1 -1 -1
16 16 16 17 17 18 18 18 18 18 20 21 20 20 19 19 19 19 18 18 18 18 19 19 19 18 18 18 18 18 17 16 16 14 13 13 13 12 11 10 10 10 9 8 8 8 9 5 2 -1 -4 -5 -5 -5 -7 -6 -6 -5 -4 -3 -1 0 2
15 15 15 15 16 17 17 17 18 20 23 24 23 22 21 20 20 19 19 19 18 18 19 19 19 19 19 19 19 19 18 18 18 17 15 14 14 13 12 11 10 9 9 9 8 7 7 6 4 1 -2 -4 -5 -6 -6 -6 -6 -6 -6 -1 -2 -2 -2
13 13 14 14 14 14 15 16 17 20 23 24 24 24 23 22 20 20 20 19 19 18 18 19 19 19 19 20 19 19 19 19 19 18 18 17 18 16 13 11 10 10 10 9 8 8 8 7 5 4 0 -2 -3 -5 -5 -5 -5 -5 -3 -3 -5 -6 -8
11 11 12 12 12 12 13 14 16 21 22 23 24 23 23 23 22 21 20 20 19 19 19 19 18 18 18 18 18 19 19 19 19 19 19 20 19 18 17 16 13 11 10 10 9 8 8 7 6 5 3 1 0 -2 -3 -2 -2 -1 -2 -2 -4 -4 -6
9 9 10 10 10 10 11 12 15 20 21 22 22 23 22 22 23 22 20 20 19 19 19 18 18 18 18 17 19 19 18 18 18 20 20 18 18 18 18 18 19 17 13 11 10 9 8 8 7 5 4 3 1 2 -0 -0 -1 -0 -1 -1 -3 -5 -5
8 8 8 8 8 8 9 9 14 19 20 20 21 21 21 21 21 21 20 20 19 19 19 18 18 17 17 16 16 16 17 17 17 17 18 17 16 16 16 17 18 18 17 15 12 10 9 10 9 6 6 5 6 2 1 0 -1 0 -1 -1 -2 -3 -4
5 5 6 6 6 6 6 7 15 18 19 19 19 20 20 18 18 17 18 18 19 18 18 18 18 17 17 16 15 15 16 16 16 15 15 16 15 15 15 15 15 16 17 16 14 12 11 11 10 8 8 6 6 4 4 3 2 1 0 0 -3 -6 -8
4 4 4 4 4 4 5 6 13 16 17 18 19 19 16 15 14 14 14 14 15 16 17 17 17 17 16 16 15 16 17 17 15 14 14 14 14 14 14 14 15 18 19 17 15 14 12 11 10 13 8 7 5 5 5 4 2 -1 -3 -5 -8 -6 -10
2 3 2 2 2 2 3 2 8 13 15 17 18 17 13 13 12 11 12 12 12 13 13 14 15 16 16 15 15 15 18 20 17 14 13 13 12 13 13 12 14 18 20 21 21 20 19 18 17 17 17 16 15 7 6 2 -0 -2 -4 -6 -7 -7 -10
0 0 1 0 -1 1 1 0 3 10 14 15 16 15 12 10 10 9 10 10 10 11 11 11 14 14 15 15 14 17 19 20 18 14 13 12 11 11 11 11 12 12 15 20 20 20 21 20 19 18 18 18 17 16 11 1 -1 -2 -4 -5 -6 -8 -8
-2 -3 -1 -1 -1 1 0 -1 0 7 12 13 14 12 11 9 7 6 7 8 8 9 9 9 11 12 13 14 15 18 18 19 18 16 13 12 11 10 10 10 11 11 11 12 14 15 16 16 17 16 15 15 15 15 11 3 2 -1 -4 -5 -6 -6 -8
-5 -5 -4 -3 -2 -2 -3 -3 -2 2 13 13 13 14 10 7 5 5 5 6 6 6 6 6 7 9 12 14 15 16 18 18 18 17 15 13 11 10 9 11 10 10 10 10 10 11 13 13 15 16 15 14 14 14 12 5 3 0 -3 -4 -5 -5 -6
-7 -6 -6 -4 -3 -3 -3 -3 -2 -0 11 12 13 13 11 6 6 6 6 6 6 4 2 5 6 5 9 12 14 14 15 16 18 18 16 14 12 11 11 13 9 9 11 9 8 8 9 10 11 11 10 11 12 12 12 9 3 2 0 -2 -3 -4 -5
-8 -8 -7 -6 -5 -5 -5 -3 -1 -1 5 11 12 12 12 7 6 7 7 4 2 2 2 3 5 5 8 10 13 14 15 16 16 17 16 16 18 18 18 14 10 8 8 9 7 7 6 6 7 7 6 6 6 7 8 10 6 3 2 1 0 -2 -3
-10 -10 -9 -8 -5 -5 -5 -5 -4 -0 -1 4 10 11 11 11 9 11 6 2 -1 -2 -0 -0 0 2 3 4 11 13 14 15 15 15 14 17 17 17 16 16 13 9 7 7 6 5 5 4 4 4 4 4 4 4 4 5 7 6 5 3 3 3 2
-11 -12 -11 -10 -8 -6 -5 -5 -6 -3 -1 -1 5 9 10 11 11 10 5 3 -2 -2 -1 -1 -3 0 9 10 10 11 12 14 9 9 13 14 11 10 11 11 13 11 7 6 5 5 4 3 3 2 2 2 3 3 3 4 5 5 5 5 5 5 4
-12 -12 -11 -11 -9 -8 -5 -5 -7 -8 -4 -1 -0 7 9 10 9 6 5 1 -3 -1 -2 3 9 10 11 11 11 11 8 3 2 3 4 4 5 6 6 8 8 10 9 6 5 4 4 3 3 2 2 3 3 3 3 1 0 1 1 2 2 1 -0
-11 -10 -10 -11 -11 -10 -8 -7 -7 -6 -6 -3 -2 -1 4 8 4 3 4 3 -0 2 2 3 6 1 1 1 0 0 -1 -0 -0 1 -0 -1 -1 -2 -0 2 4 6 7 7 6 5 4 3 3 2 2 2 2 1 -0 -0 -2 -2 -3 -4 -3 -5 -5
-7 -5 -7 -9 -10 -11 -10 -10 -9 -7 -7 -4 -3 -1 0 1 0 2 -0 -2 -4 -2 -5 -3 -1 -1 0 -1 -1 -2 -2 -3 -4 -5 -6 -7 -7 -6 -4 -1 1 2 4 5 6 6 5 5 4 3 1 0 -0 -0 -1 -1 -2 -3 -3 -5 -5 -4 -5
-6 -2 -6 -9 -10 -10 -12 -10 -11 -8 -6 -4 -1 -0 1 1 0 -2 -6 -5 -7 -7 -8 -8 -5 -8 -12 -13 -13 -14 -15 -14 -14 -11 -9 -10 -10 -9 -8 -2 -1 1 2 4 5 5 4 3 4 3 2 1 -1 -1 -2 -2 -3 -3 -4 -6 -6 -8 -7
-0 -1 -4 -7 -10 -11 -10 -8 -8 -8 -3 -2 1 0 -2 -3 -2 -2 -8 -8 -8 -10 -12 -13 -14 -14 -14 -15 -15 -15 -16 -15 -14 -13 -12 -14 -13 -11 -10 -10 -12 -8 -5 -1 2 3 3 2 3 2 2 0 -1 -1 -2 -3 -3 -3 -4 -6 -6 -6 -7
-1 -0 -3 -6 -9 -9 -7 -8 -9 -5 4 6 4 5 -0 -1 4 -1 -7 -9 -11 -12 -18 -18 -19 -18 -18 -17 -18 -17 -17 -16 -17 -16 -15 -14 -9 -12 -13 -12 -11 -11 -9 -6 -3 -0 1 1 1 0 0 -1 -1 -1 -3 -4 -2 -4 -4 -6 -7 -7 -6
4 3 -3 -6 -8 -6 -5 -7 -8 -7 4 4 4 5 4 2 -3 -2 -8 -12 -14 -20 -21 -21 -21 -20 -20 -18 -19 -19 -18 -17 -17 -16 -16 -16 -15 -14 -13 -11 -12 -10 -10 -8 -7 -4 -2 -1 -1 -1 -0 -2 -2 -2 -3 -4 -3 -4 -5 -5 -6 -8 -8
2 2 1 -5 -6 -6 -7 -9 -9 -9 3 3 3 2 0 2 2 1 -6 -15 -16 -23 -23 -24 -24 -23 -22 -20 -20 -18 -17 -17 -17 -16 -18 -18 -17 -17 -15 -14 -14 -11 -10 -9 -8 -7 -5 -4 -3 -2 -2 -2 -3 -4 -4 -5 -5 -4 -5 -5 -5 -7 -8
-3 -3 -2 -1 -1 0 -0 -8 -9 -7 2 2 1 1 -13 -5 -5 -15 -16 -18 -22 -28 -25 -26 -25 -25 -24 -22 -22 -21 -20 -19 -19 -18 -18 -18 -18 -18 -17 -16 -16 -13 -13 -11 -9 -7 -7 -6 -5 -5 -5 -5 -4 -4 -4 -5 -6 -5 -6 -6 -6 -7 -9
-12 -13 -15 -13 -10 -8 -7 -8 -4 -4 -4 -2 -1 -3 -7 -16 -17 -8 -16 -19 -26 -26 -28 -27 -27 -25 -25 -25 -23 -22 -21 -21 -21 -20 -19 -19 -18 -18 -18 -17 -17 -16 -14 -13 -13 -11 -10 -8 -6 -6 -6 -6 -6 -5 -4 -5 -6 -7 -7 -8 -7 -8 -11
-23 -19 -18 -18 -17 -16 -16 -17 -17 -16 -15 -14 -15 -16 -13 -10 -29 -29 -28 -27 -28 -27 -28 -28 -28 -28 -27 -27 -26 -25 -24 -24 -24 -23 -22 -22 -22 -21 -20 -19 -18 -16 -15 -15 -15 -15 -13 -11 -8 -7 -6 -7 -7 -7 -8 -7 -7 -8 -8 -8 -9 -9 -11
-28 -28 -20 -20 -19 -17 -18 -19 -19 -17 -16 -8 -12 -16 -22 -30 -32 -32 -31 -30 -30 -30 -28 -30 -30 -29 -30 -30 -30 -30 -28 -28 -27 -26 -26 -25 -24 -23 -23 -23 -21 -18 -18 -18 -18 -17 -15 -14 -13 -9 -7 -7 -7 -8 -8 -8 -9 -9 -10 -9 -9 -10 -10

ECMWFFLT1_sfc_dewp_135.txt.gz
Dewpoint
19 19 19 19 19 18 17 17 16 15 15 15 15 15 15 15 15 14 14 14 14 14 14 15 15 14 15 13 15 13 13 10 9 7 6 6 7 6 9 8 10 9 10 2 -1 -5 -8 -9 -9 -8 -6 -4 -2 -1 6 13 5 5 10 11 9 8 19
18 18 19 19 19 18 18 18 16 15 15 15 15 15 15 14 15 15 14 15 14 15 15 15 17 15 15 14 16 17 16 14 11 13 9 7 9 6 9 5 8 9 8 9 -6 -5 -10 -10 -10 -10 -9 -7 -5 -2 3 8 6 3 7 8 9 6 8
17 17 18 19 19 20 19 19 18 17 16 16 16 15 15 15 14 15 15 16 15 15 15 16 18 18 17 17 17 17 16 16 15 14 14 12 11 10 6 5 6 9 9 10 6 -3 -7 -11 -11 -10 -10 -9 -7 -3 -1 5 8 2 4 5 5 4 3
16 17 17 18 18 18 19 20 21 20 18 18 17 16 17 16 15 15 16 17 16 16 16 18 18 18 18 18 17 17 15 16 16 15 14 14 13 12 8 6 5 7 10 10 9 1 -3 -9 -10 -11 -11 -9 -8 -6 -4 3 7 2 2 2 5 2 1
15 16 16 17 17 17 18 18 19 20 21 21 19 18 18 18 20 19 19 18 18 19 19 19 18 18 19 18 18 17 16 16 16 16 15 14 13 12 12 11 10 10 10 10 10 10 4 -4 -9 -9 -11 -9 -9 -8 -6 0 5 2 3 2 2 0 -1
14 15 15 16 16 17 17 18 18 18 19 20 21 21 20 21 21 20 20 20 19 20 20 20 20 19 19 19 19 18 18 18 17 17 16 15 14 13 13 12 12 11 10 10 9 10 10 0 -5 -8 -10 -9 -9 -8 -7 -1 4 2 7 5 3 3 2
13 13 15 15 16 16 17 17 18 18 18 19 20 21 22 22 22 20 20 20 20 21 21 21 20 20 20 20 20 19 19 19 18 17 17 17 16 15 14 13 13 12 12 11 11 11 12 8 3 -3 -5 -8 -8 -8 -4 0 2 2 3 4 3 2 1
12 12 14 14 14 15 15 16 17 17 18 20 22 22 22 22 22 22 22 21 21 21 21 21 21 21 21 21 21 20 20 20 18 18 17 17 17 16 15 14 13 13 13 12 12 10 11 10 7 2 -0 -5 -6 -7 -5 -3 -0 -0 -1 0 1 2 1
11 11 12 12 13 13 13 15 16 16 18 20 22 23 23 23 23 22 22 22 21 21 21 21 21 21 21 21 22 22 21 21 20 18 17 17 18 17 16 15 14 13 12 11 12 11 12 11 9 7 3 -1 -4 -5 -6 -6 -2 1 1 1 -1 1 3
10 11 11 11 11 12 12 13 13 15 20 22 21 22 23 23 23 23 22 22 21 21 21 21 21 22 22 22 22 22 22 22 21 21 19 18 18 17 16 15 14 13 12 12 11 11 11 11 10 8 4 1 -2 -4 -5 -3 -4 -3 -3 -0 0 0 1
9 9 9 9 10 10 10 11 12 17 22 22 22 21 22 21 22 23 22 22 22 21 21 21 21 21 22 22 22 22 23 22 22 22 22 21 20 19 17 16 15 14 14 12 11 12 12 11 11 11 7 3 0 -3 -3 -1 -3 0 2 0 -2 -2 1
7 7 8 8 8 8 8 9 11 19 20 21 21 20 20 21 20 20 20 20 20 20 20 21 21 21 21 21 21 21 22 22 23 22 22 22 21 21 21 20 17 15 14 13 12 12 12 12 12 12 12 8 4 0 -2 1 3 3 3 3 1 0 1
5 5 6 6 5 6 6 6 10 18 19 19 20 21 19 16 16 16 16 17 17 17 18 18 19 19 20 20 21 21 21 21 21 22 23 22 22 21 21 21 22 20 17 15 14 13 12 12 12 12 11 11 7 7 3 2 2 4 3 4 3 1 1
3 3 4 4 3 3 4 3 8 15 17 18 19 20 16 14 13 13 14 14 14 14 15 16 16 16 17 19 20 20 20 20 20 20 20 21 21 21 21 21 21 21 20 18 15 14 13 14 14 12 13 13 11 8 5 4 4 6 5 5 4 6 4
1 1 2 1 1 1 2 0 10 13 15 16 17 18 14 12 11 10 11 12 12 12 12 13 13 14 15 16 17 18 19 18 18 19 19 19 19 20 20 20 20 20 20 20 18 16 16 16 16 15 14 13 12 10 9 9 8 7 7 7 7 2 3
-0 -0 -1 0 -1 -1 -0 0 10 13 15 16 16 16 11 10 9 8 9 9 10 10 11 12 12 13 13 14 14 16 18 19 19 18 17 17 17 18 19 19 20 22 22 20 20 19 18 17 17 18 15 14 12 11 11 9 8 8 7 5 1 1 -0
-2 -2 -2 -2 -2 -3 -1 -1 5 13 14 15 16 14 11 9 7 6 7 7 8 9 10 10 11 11 12 12 13 14 18 19 18 18 17 16 15 16 16 16 18 21 23 23 23 23 23 22 22 21 21 20 19 13 12 9 7 5 5 3 1 1 -0
-3 -3 -3 -3 -4 -2 -1 -3 -0 11 14 14 14 13 10 9 6 5 5 6 7 8 9 9 9 10 10 11 12 15 18 18 18 17 17 16 15 14 14 14 16 16 17 22 23 22 22 22 22 22 22 22 21 19 15 8 6 7 4 2 2 0 -0
-5 -5 -5 -5 -4 -1 -3 -4 -2 7 12 13 13 11 9 7 4 4 4 5 6 6 5 5 6 6 7 8 11 16 17 18 16 16 17 17 15 13 13 14 15 14 14 14 15 17 19 19 20 20 20 19 19 19 16 10 9 7 4 2 2 2 -0
-6 -7 -6 -5 -5 -5 -6 -5 -3 1 10 11 11 12 8 6 5 4 5 6 3 2 2 2 3 4 5 9 10 12 15 16 17 15 15 16 15 13 13 14 14 14 13 13 13 14 15 16 17 18 19 19 19 18 15 11 10 8 5 5 3 2 0
-8 -8 -8 -6 -6 -5 -5 -4 -3 -2 8 9 10 11 10 5 5 5 7 3 2 1 1 1 1 2 4 7 9 10 12 13 14 15 14 14 14 15 15 16 14 13 14 13 12 12 12 12 13 14 15 16 16 17 16 12 9 9 7 6 4 3 1
-10 -10 -9 -8 -7 -6 -6 -4 -2 -3 2 8 9 11 11 6 5 6 6 2 1 0 -0 1 1 1 3 6 12 13 14 14 14 15 8 10 16 15 13 10 12 14 12 12 12 11 10 10 10 11 12 13 14 14 15 12 9 8 7 7 6 4 2
-12 -11 -10 -9 -8 -7 -7 -6 -6 -3 -3 2 7 10 10 10 8 10 3 2 -1 -1 -0 -0 0 2 5 8 13 13 14 14 13 9 9 14 13 11 6 6 5 8 10 11 11 10 9 9 9 9 9 10 10 12 14 13 10 9 8 6 6 7 6
-12 -11 -11 -10 -9 -9 -9 -8 -8 -6 -3 -3 1 8 10 10 10 8 3 -0 -2 -2 -3 -3 1 2 9 10 11 11 12 12 5 6 11 10 5 2 1 -1 -0 2 5 7 9 9 8 8 8 8 8 8 9 10 11 13 12 9 8 7 6 7 6
-11 -10 -10 -11 -10 -10 -9 -9 -9 -9 -6 -4 -3 5 9 8 7 3 0 -4 -5 -5 -7 -5 5 6 6 6 7 7 5 -1 -2 0 0 -1 -1 -2 -5 -3 -3 -3 -1 1 4 6 7 7 7 7 7 9 9 9 9 9 10 10 8 8 6 6 4
-9 -6 -8 -10 -12 -12 -11 -11 -10 -9 -9 -6 -4 -2 3 4 3 -1 -3 -6 -7 -8 -9 -7 -3 -7 -6 -6 -6 -7 -8 -8 -8 -6 -5 -5 -5 -8 -7 -6 -4 -3 -2 -2 -0 2 4 6 6 6 6 7 7 6 6 7 6 5 5 6 5 4 3
-8 -5 -9 -10 -12 -13 -12 -11 -10 -10 -10 -8 -5 -2 -4 -3 -2 -5 -7 -9 -11 -11 -14 -12 -11 -10 -10 -10 -9 -9 -10 -10 -10 -11 -11 -12 -11 -10 -10 -7 -6 -5 -4 -3 -2 -0 1 3 5 7 5 4 4 4 5 5 4 4 3 3 4 3 2
-7 -5 -8 -11 -11 -12 -12 -11 -12 -11 -10 -7 -5 -4 -6 -6 -5 -9 -13 -14 -15 -15 -16 -16 -14 -15 -17 -16 -16 -16 -16 -16 -15 -14 -14 -15 -13 -13 -12 -9 -7 -7 -8 -7 -5 -4 -3 -1 1 3 5 4 3 3 3 3 3 3 2 1 1 0 -0
-4 -4 -7 -9 -10 -10 -11 -11 -12 -12 -5 -3 -2 -3 -8 -8 -8 -12 -16 -14 -14 -16 -19 -20 -21 -19 -19 -20 -19 -19 -18 -18 -18 -17 -17 -16 -15 -15 -14 -13 -15 -13 -12 -11 -9 -8 -7 -6 -3 -0 2 4 3 2 2 2 2 2 1 -0 -1 -2 -2
-4 -5 -8 -11 -11 -10 -11 -13 -13 -7 3 4 1 2 -4 -3 1 -8 -15 -16 -16 -18 -23 -23 -23 -22 -22 -22 -21 -21 -21 -21 -20 -20 -20 -19 -15 -17 -16 -16 -16 -15 -15 -14 -12 -10 -9 -8 -6 -5 -3 1 2 2 2 1 1 0 0 -1 -4 -4 -3
1 -0 -6 -10 -12 -10 -9 -11 -11 -9 2 3 2 3 2 -1 -7 -9 -15 -16 -21 -25 -24 -25 -25 -24 -23 -23 -23 -22 -22 -21 -22 -21 -21 -21 -20 -19 -18 -17 -18 -17 -16 -15 -14 -13 -11 -10 -9 -8 -6 -5 -2 0 1 0 -0 -0 -1 -3 -4 -5 -4
-1 -1 -2 -8 -10 -9 -13 -12 -12 -10 1 1 1 0 -2 -0 -1 -2 -9 -18 -20 -26 -26 -26 -27 -26 -26 -25 -25 -24 -23 -23 -23 -22 -22 -22 -22 -21 -20 -19 -19 -17 -17 -15 -16 -15 -15 -14 -12 -11 -9 -8 -6 -4 -2 -1 -2 -2 -2 -3 -3 -4 -5
-6 -6 -5 -4 -3 -1 -2 -10 -11 -8 -1 -0 -1 -2 -16 -8 -7 -18 -19 -23 -26 -29 -28 -28 -28 -28 -27 -27 -27 -26 -25 -24 -24 -24 -23 -23 -23 -22 -22 -21 -20 -17 -17 -17 -17 -17 -17 -16 -15 -13 -12 -10 -9 -7 -6 -4 -3 -3 -3 -3 -4 -5 -6
-17 -17 -16 -15 -13 -11 -10 -10 -8 -7 -9 -4 -4 -5 -9 -18 -19 -11 -19 -24 -29 -30 -30 -30 -30 -30 -29 -30 -28 -28 -27 -27 -27 -25 -25 -24 -24 -23 -23 -23 -21 -20 -20 -19 -19 -19 -18 -17 -17 -16 -16 -14 -12 -10 -9 -7 -5 -4 -4 -5 -5 -5 -6
-26 -22 -19 -20 -19 -18 -19 -19 -20 -18 -17 -16 -18 -19 -15 -12 -31 -31 -31 -31 -31 -30 -31 -31 -31 -32 -31 -31 -31 -30 -29 -30 -29 -28 -27 -26 -25 -25 -25 -25 -23 -22 -22 -22 -21 -21 -20 -19 -19 -19 -18 -17 -16 -14 -13 -11 -9 -7 -5 -5 -6 -5 -6
-29 -30 -22 -20 -20 -19 -20 -21 -21 -19 -18 -12 -14 -19 -24 -32 -32 -33 -32 -31 -32 -32 -31 -32 -32 -32 -33 -33 -32 -32 -32 -32 -31 -30 -29 -29 -27 -26 -27 -26 -24 -23 -24 -23 -23 -22 -21 -21 -21 -21 -20 -19 -19 -17 -16 -13 -11 -10 -8 -7 -6 -6 -6

ECMWFFLT1_sfc_dewp_141.txt.gz
Dewpoint
14 15 15 15 16 17 18 19 19 19 19 19 19 18 18 18 18 18 18 18 18 19 19 19 20 20 20 19 20 19 18 18 17 16 16 15 15 15 17 16 18 17 16 14 14 14 13 13 12 4 3 4 5 6 13 16 7 9 9 10 11 12 26
12 13 13 14 15 16 17 18 18 19 21 21 21 21 22 19 18 18 18 18 18 18 19 19 20 21 19 19 20 23 22 21 18 20 17 16 18 15 17 14 16 16 15 16 13 12 12 12 12 11 3 2 3 5 10 11 8 9 6 7 8 9 13
11 12 12 13 14 15 16 16 17 18 19 20 21 21 22 23 22 21 20 19 19 19 19 20 22 20 21 23 23 23 23 22 22 22 21 20 19 17 15 15 14 16 16 17 14 13 12 12 11 11 10 4 2 6 6 11 11 9 11 12 6 8 12
9 10 11 12 14 14 15 15 15 17 17 19 19 20 21 21 22 23 24 24 23 22 22 23 23 23 22 24 24 24 22 22 23 22 21 21 21 20 17 16 15 14 17 16 15 13 12 12 12 12 10 10 5 3 5 9 12 12 10 10 12 7 7
8 8 10 10 11 12 13 14 14 15 16 17 18 19 20 22 23 23 24 25 25 26 26 26 25 25 26 26 25 25 24 24 24 24 23 23 23 22 21 19 18 19 18 17 16 16 15 14 14 13 13 10 4 3 5 6 9 11 12 11 10 9 9
7 9 8 9 9 10 10 11 12 13 14 15 16 17 20 22 22 22 23 24 24 24 25 26 26 26 26 26 26 25 26 26 25 25 24 24 24 23 23 23 22 22 21 20 19 19 18 16 15 14 14 13 11 6 4 4 8 9 16 16 15 14 13
6 7 8 8 8 9 10 10 11 12 13 15 17 19 20 21 21 21 22 23 23 24 24 25 25 25 26 26 26 26 26 26 25 25 25 25 25 24 24 23 23 23 22 21 21 20 20 19 18 16 15 14 14 11 6 4 4 9 11 14 15 14 15
5 5 6 7 7 7 7 8 9 11 13 16 18 20 20 20 20 20 21 21 22 22 23 24 24 25 25 26 26 26 26 26 25 25 25 25 25 24 24 23 23 22 22 21 21 20 19 18 18 17 17 16 16 14 10 6 4 5 6 11 14 13 13
2 4 5 6 7 5 6 8 9 10 12 15 17 19 19 19 20 20 20 20 20 20 20 20 21 21 22 22 22 23 24 24 25 25 24 25 25 24 24 23 22 22 21 21 20 19 19 18 18 18 17 16 16 15 14 11 7 8 6 9 11 13 14
1 2 4 4 6 6 5 6 7 9 14 17 17 18 18 19 17 17 17 17 17 16 17 17 17 18 19 20 20 21 21 21 22 22 23 23 24 24 24 23 22 22 21 20 19 19 19 18 17 17 16 15 15 15 15 14 11 7 7 9 11 11 12
2 2 2 2 4 4 4 5 5 10 16 17 18 17 17 17 15 15 15 15 14 13 12 13 14 15 16 16 17 17 18 18 19 19 20 21 21 22 22 23 22 22 21 20 19 19 19 18 18 18 16 15 15 15 15 14 13 9 10 9 8 7 11
2 1 2 2 3 3 4 4 6 14 16 17 17 17 17 14 12 13 12 12 12 11 10 10 11 12 13 14 15 15 15 15 17 17 18 19 20 20 21 22 22 22 22 21 20 19 19 19 18 18 18 18 17 16 15 16 15 14 11 10 9 9 9
1 1 1 2 2 3 3 3 7 14 15 16 17 17 17 12 11 10 10 10 10 9 9 9 10 11 11 12 13 12 12 12 12 15 17 18 19 19 20 21 22 22 22 23 22 20 19 19 19 19 19 19 18 19 17 17 16 15 13 11 10 9 10
0 0 1 1 1 1 2 3 7 13 14 15 15 15 15 12 11 9 9 9 8 7 7 9 9 7 7 8 8 8 8 9 10 11 13 15 16 17 18 19 20 20 21 22 21 22 21 21 21 19 19 21 21 19 18 17 16 16 13 12 11 12 12
-1 -0 1 1 1 1 1 2 8 11 12 14 14 15 12 8 9 8 8 6 7 8 8 9 7 6 5 6 6 6 8 9 11 12 12 12 13 14 15 16 18 19 19 19 20 20 21 22 23 22 22 21 21 21 20 19 18 17 15 14 14 14 15
-2 -1 -1 -0 0 0 1 1 6 10 11 13 14 14 8 6 6 7 7 6 7 7 9 7 6 5 5 5 5 7 9 11 11 12 11 10 11 11 12 13 15 17 19 20 21 21 21 21 22 24 24 23 22 21 21 20 19 19 17 15 13 11 12
-2 -2 -1 -0 -0 0 0 -1 3 8 11 12 13 11 6 6 5 4 5 5 6 6 6 5 6 5 4 5 4 7 12 14 12 11 11 9 9 10 11 10 14 15 16 17 19 19 21 22 23 24 25 25 25 24 22 19 17 16 16 14 12 11 11
-3 -2 -0 -0 -2 -1 -2 -3 -0 6 10 11 12 10 6 4 3 3 3 4 6 6 4 5 5 5 4 4 5 9 12 13 11 10 8 6 6 6 8 9 10 8 9 13 15 15 16 17 19 21 21 22 22 23 22 22 17 16 16 14 13 11 11
-2 -2 -0 -1 -2 0 -2 -3 -2 3 9 10 11 9 6 3 2 2 2 2 3 4 3 3 2 3 4 4 5 10 11 12 9 8 7 4 4 4 4 6 7 4 4 5 6 7 8 10 13 15 18 19 20 20 20 19 20 18 15 13 12 12 11
-1 -1 -0 -0 -1 -2 -3 -4 -4 -1 7 9 10 11 6 3 1 1 2 3 1 -1 -0 -0 -1 -1 2 5 7 9 10 11 12 7 6 3 0 1 2 6 4 2 2 3 4 4 7 9 10 13 14 16 18 19 19 19 20 20 17 15 12 12 11
-2 -1 -1 -1 -2 -2 -3 -3 -3 -3 4 7 9 10 8 4 3 2 -0 -2 -2 -4 -4 -4 -4 -5 -2 -0 5 9 11 11 11 9 4 -0 -1 2 6 6 -2 -1 1 1 2 2 3 3 6 8 10 12 15 16 17 18 19 20 19 16 13 12 11
-3 -3 -3 -3 -3 -2 -4 -4 -3 -5 -2 5 7 9 9 3 2 1 -5 -6 -7 -6 -7 -7 -8 -8 -5 -2 6 9 9 9 9 8 -2 -1 9 10 8 -3 -3 -4 -4 -4 -3 -3 -2 -1 1 3 5 8 11 13 15 17 17 19 19 18 17 14 12
-2 -3 -4 -4 -5 -3 -4 -5 -6 -5 -5 -1 5 7 7 7 3 4 -6 -9 -9 -8 -9 -9 -10 -9 -4 -0 7 7 7 7 6 -1 -1 8 7 5 -3 -5 -8 -4 -6 -5 -4 -3 -3 -2 -1 -0 2 5 7 10 14 15 16 18 19 18 18 17 16
-6 -5 -5 -5 -7 -8 -8 -7 -7 -7 -6 -4 0 5 4 6 5 4 -6 -10 -12 -10 -11 -13 -12 -7 1 4 5 5 4 3 -4 -4 4 3 -5 -6 -7 -9 -9 -9 -9 -7 -7 -6 -5 -4 -2 -0 1 3 5 6 8 10 12 13 17 18 17 18 17
-6 -6 -6 -7 -8 -9 -9 -9 -8 -11 -9 -4 -2 2 2 3 1 -5 -7 -12 -12 -10 -14 -12 -3 -0 1 0 1 1 -2 -8 -10 -7 -7 -10 -9 -10 -13 -12 -12 -12 -12 -12 -10 -9 -8 -8 -6 -5 -4 -2 -1 1 4 6 8 10 13 16 17 17 16
-8 -7 -7 -8 -9 -10 -10 -10 -10 -13 -11 -6 -4 -4 -3 -1 -7 -9 -10 -11 -14 -13 -14 -12 -8 -13 -13 -12 -13 -13 -14 -14 -15 -13 -12 -14 -14 -16 -16 -15 -15 -15 -14 -14 -13 -12 -12 -12 -10 -9 -7 -4 -3 -3 -2 1 3 5 6 8 10 12 13
-8 -8 -9 -10 -11 -11 -11 -11 -12 -15 -12 -8 -8 -10 -9 -9 -13 -12 -14 -16 -17 -17 -19 -18 -16 -16 -16 -16 -15 -16 -16 -17 -17 -18 -20 -20 -20 -19 -18 -17 -17 -16 -16 -16 -16 -16 -15 -13 -12 -10 -9 -9 -7 -6 -4 -1 1 2 4 5 6 8 8
-9 -9 -10 -12 -13 -13 -13 -13 -14 -16 -12 -7 -8 -10 -11 -11 -16 -19 -20 -20 -19 -19 -20 -21 -18 -19 -21 -21 -21 -22 -22 -23 -22 -21 -20 -21 -20 -20 -19 -17 -15 -16 -18 -19 -18 -17 -16 -15 -15 -15 -13 -12 -11 -9 -7 -5 -3 -2 -1 2 5 5 5
-8 -9 -11 -13 -14 -13 -14 -15 -15 -15 -5 -4 -4 -8 -10 -12 -17 -20 -21 -18 -16 -19 -22 -23 -24 -24 -24 -25 -24 -25 -25 -24 -23 -23 -22 -21 -21 -22 -22 -21 -23 -23 -22 -21 -20 -20 -19 -19 -18 -18 -16 -15 -14 -13 -12 -10 -9 -7 -6 -4 -1 2 4
-7 -8 -12 -14 -13 -12 -15 -15 -14 -8 -0 -1 -2 -2 -5 -6 -4 -12 -18 -18 -18 -21 -27 -26 -27 -27 -27 -27 -27 -25 -27 -25 -25 -25 -25 -24 -20 -22 -23 -22 -23 -24 -23 -22 -21 -21 -21 -21 -20 -20 -19 -19 -18 -17 -15 -13 -10 -11 -9 -7 -5 -3 0
-2 -3 -8 -10 -13 -12 -9 -11 -10 -9 -1 -2 -1 -2 -3 -4 -9 -10 -15 -18 -23 -28 -29 -29 -29 -29 -29 -28 -29 -27 -27 -26 -26 -26 -26 -25 -25 -24 -24 -22 -24 -24 -23 -23 -23 -23 -23 -22 -22 -22 -22 -21 -20 -19 -18 -18 -15 -14 -13 -11 -9 -7 -6
-3 -3 -4 -8 -8 -11 -15 -12 -11 -10 -2 -3 -2 -3 -6 -4 -4 -4 -13 -20 -22 -30 -31 -31 -31 -31 -31 -30 -30 -30 -29 -27 -27 -27 -27 -26 -26 -26 -25 -24 -25 -23 -24 -24 -25 -25 -25 -25 -24 -24 -23 -23 -22 -20 -21 -21 -19 -18 -16 -14 -12 -10 -8
-6 -6 -5 -4 -4 -3 -5 -10 -10 -9 -4 -4 -3 -5 -14 -10 -9 -18 -20 -23 -29 -31 -32 -32 -32 -32 -32 -32 -32 -31 -31 -30 -29 -28 -28 -27 -27 -27 -26 -25 -24 -22 -24 -24 -25 -25 -26 -25 -25 -25 -24 -23 -23 -23 -24 -23 -22 -21 -18 -16 -15 -13 -11
-13 -13 -13 -12 -11 -10 -11 -11 -9 -9 -10 -8 -6 -7 -9 -15 -16 -13 -18 -25 -31 -32 -32 -32 -32 -32 -32 -32 -32 -32 -31 -31 -30 -29 -28 -28 -28 -27 -27 -26 -24 -25 -25 -25 -26 -27 -26 -25 -26 -26 -26 -26 -26 -25 -24 -25 -23 -22 -21 -20 -18 -17 -16
-24 -19 -15 -17 -17 -15 -15 -16 -16 -15 -15 -15 -15 -17 -16 -15 -30 -31 -30 -30 -31 -31 -32 -33 -33 -33 -33 -33 -33 -32 -31 -32 -31 -30 -30 -29 -29 -28 -28 -28 -27 -27 -26 -26 -27 -27 -27 -26 -26 -26 -26 -26 -27 -27 -26 -25 -25 -24 -23 -22 -20 -19 -18
-26 -27 -21 -18 -18 -18 -17 -17 -19 -17 -15 -12 -13 -16 -23 -31 -31 -31 -31 -30 -31 -31 -31 -32 -33 -33 -33 -33 -33 -33 -33 -31 -31 -31 -30 -30 -29 -29 -29 -29 -28 -27 -27 -26 -27 -27 -26 -26 -27 -27 -27 -27 -27 -27 -26 -26 -25 -24 -23 -22 -22 -20 -20